Time,TemperatureF,DewpointF,PressureIn,WindDirection,WindDirectionDegrees,WindSpeedMPH,WindSpeedGustMPH,Humidity,HourlyPrecipIn,Conditions,Clouds,dailyrainin,SoftwareType,DateUTC
2014-01-03 00:02:00,33.2,22.7,29.82,WSW,246,3.0,8.0,65,0.00,,,0.00,Wunderground v.1.15,2014-01-03 05:02:00,
2014-01-03 00:06:00,32.7,22.2,29.83,WSW,255,6.0,8.0,65,0.00,,,0.00,Wunderground v.1.15,2014-01-03 05:06:00,
2014-01-03 00:07:00,32.6,22.1,29.83,South,183,5.0,8.0,65,0.00,,,0.00,Wunderground v.1.15,2014-01-03 05:07:00,
2014-01-03 01:37:00,28.4,17.4,29.91,NNW,332,4.0,7.0,63,0.00,,,0.00,Wunderground v.1.15,2014-01-03 06:37:00,
2014-01-03 01:38:00,28.4,17.4,29.92,WSW,248,3.0,7.0,63,0.00,,,0.00,Wunderground v.1.15,2014-01-03 06:38:00,
2014-01-03 01:39:00,28.4,17.4,29.91,WNW,295,3.0,7.0,63,0.00,,,0.00,Wunderground v.1.15,2014-01-03 06:39:00,
2014-01-03 01:45:00,28.2,17.9,29.92,NNW,328,6.0,6.0,65,0.00,,,0.00,Wunderground v.1.15,2014-01-03 06:45:00,
2014-01-03 01:47:00,28.2,17.2,29.93,WNW,293,8.0,8.0,63,0.00,,,0.00,Wunderground v.1.15,2014-01-03 06:47:00,
2014-01-03 01:54:00,28.0,17.7,29.93,NNE,19,1.0,6.0,65,0.00,,,0.00,Wunderground v.1.15,2014-01-03 06:54:00,
2014-01-03 01:55:00,28.0,17.7,29.93,NW,308,6.0,6.0,65,0.00,,,0.00,Wunderground v.1.15,2014-01-03 06:55:00,
2014-01-03 02:01:00,28.0,16.6,29.94,WNW,302,4.0,6.0,62,0.00,,,0.00,Wunderground v.1.15,2014-01-03 07:01:00,
2014-01-03 02:02:00,27.9,16.9,29.94,WNW,294,2.0,6.0,63,0.00,,,0.00,Wunderground v.1.15,2014-01-03 07:02:00,
2014-01-03 02:06:00,27.9,16.6,29.95,WNW,300,4.0,6.0,62,0.00,,,0.00,Wunderground v.1.15,2014-01-03 07:06:00,
2014-01-03 02:07:00,27.9,16.6,29.95,NNW,343,3.0,6.0,62,0.00,,,0.00,Wunderground v.1.15,2014-01-03 07:07:00,
2014-01-03 02:11:00,27.7,16.0,29.96,NNE,15,4.0,6.0,61,0.00,,,0.00,Wunderground v.1.15,2014-01-03 07:11:00,
2014-01-03 02:12:00,27.6,15.5,29.96,NNW,335,3.0,8.0,60,0.00,,,0.00,Wunderground v.1.15,2014-01-03 07:12:00,
2014-01-03 02:13:00,27.6,15.5,29.96,WNW,302,5.0,8.0,60,0.00,,,0.00,Wunderground v.1.15,2014-01-03 07:13:00,
2014-01-03 03:18:00,25.1,11.6,30.03,West,271,7.0,9.0,56,0.00,,,0.00,Wunderground v.1.15,2014-01-03 08:18:00,
2014-01-03 03:19:00,25.1,11.6,30.03,WSW,238,1.0,9.0,56,0.00,,,0.00,Wunderground v.1.15,2014-01-03 08:19:00,
2014-01-03 03:22:00,25.0,11.1,30.04,WNW,293,2.0,10.0,55,0.00,,,0.00,Wunderground v.1.15,2014-01-03 08:22:00,
2014-01-03 03:23:00,24.9,11.4,30.03,SSW,197,2.0,10.0,56,0.00,,,0.00,Wunderground v.1.15,2014-01-03 08:23:00,
2014-01-03 03:24:00,24.9,11.4,30.03,SW,233,4.0,10.0,56,0.00,,,0.00,Wunderground v.1.15,2014-01-03 08:24:00,
2014-01-03 03:27:00,24.9,11.4,30.04,NNW,340,2.0,10.0,56,0.00,,,0.00,Wunderground v.1.15,2014-01-03 08:27:00,
2014-01-03 03:28:00,24.8,11.3,30.04,WNW,296,1.0,10.0,56,0.00,,,0.00,Wunderground v.1.15,2014-01-03 08:28:00,
2014-01-03 03:29:00,24.8,11.3,30.04,NW,316,9.0,10.0,56,0.00,,,0.00,Wunderground v.1.15,2014-01-03 08:29:00,
2014-01-03 03:33:00,24.7,11.2,30.04,West,278,2.0,6.0,56,0.00,,,0.00,Wunderground v.1.15,2014-01-03 08:33:00,
2014-01-03 03:34:00,24.6,11.5,30.04,WSW,252,4.0,6.0,57,0.00,,,0.00,Wunderground v.1.15,2014-01-03 08:34:00,
2014-01-03 03:35:00,24.6,11.5,30.05,WNW,285,4.0,6.0,57,0.00,,,0.00,Wunderground v.1.15,2014-01-03 08:35:00,
2014-01-03 03:38:00,24.5,11.0,30.04,WSW,246,6.0,7.0,56,0.00,,,0.00,Wunderground v.1.15,2014-01-03 08:38:00,
2014-01-03 03:39:00,24.5,10.6,30.05,WNW,291,2.0,7.0,55,0.00,,,0.00,Wunderground v.1.15,2014-01-03 08:39:00,
2014-01-03 03:40:00,24.4,11.3,30.05,WSW,249,4.0,4.0,57,0.00,,,0.00,Wunderground v.1.15,2014-01-03 08:40:00,
2014-01-03 03:43:00,24.4,10.9,30.05,SW,226,2.0,8.0,56,0.00,,,0.00,Wunderground v.1.15,2014-01-03 08:43:00,
2014-01-03 03:44:00,24.3,11.2,30.05,West,262,5.0,8.0,57,0.00,,,0.00,Wunderground v.1.15,2014-01-03 08:44:00,
2014-01-03 03:45:00,24.3,10.8,30.06,WNW,289,1.0,8.0,56,0.00,,,0.00,Wunderground v.1.15,2014-01-03 08:45:00,
2014-01-03 03:46:00,24.3,10.8,30.06,WNW,297,1.0,8.0,56,0.00,,,0.00,Wunderground v.1.15,2014-01-03 08:46:00,
2014-01-03 03:48:00,24.3,11.6,30.06,West,281,3.0,8.0,58,0.00,,,0.00,Wunderground v.1.15,2014-01-03 08:48:00,
2014-01-03 03:49:00,24.2,11.5,30.06,West,267,2.0,8.0,58,0.00,,,0.00,Wunderground v.1.15,2014-01-03 08:49:00,
2014-01-03 03:50:00,24.2,11.5,30.06,West,273,2.0,5.0,58,0.00,,,0.00,Wunderground v.1.15,2014-01-03 08:50:00,
2014-01-03 03:51:00,24.2,11.5,30.06,West,270,2.0,5.0,58,0.00,,,0.00,Wunderground v.1.15,2014-01-03 08:51:00,
2014-01-03 03:53:00,24.1,11.4,30.06,West,281,3.0,7.0,58,0.00,,,0.00,Wunderground v.1.15,2014-01-03 08:53:00,
2014-01-03 04:08:00,23.7,10.7,30.07,WNW,282,6.0,13.0,57,0.00,,,0.00,Wunderground v.1.15,2014-01-03 09:08:00,
2014-01-03 04:09:00,23.7,9.9,30.07,WSW,257,4.0,13.0,55,0.00,,,0.00,Wunderground v.1.15,2014-01-03 09:09:00,
2014-01-03 04:13:00,23.6,9.8,30.07,West,280,5.0,8.0,55,0.00,,,0.00,Wunderground v.1.15,2014-01-03 09:13:00,
2014-01-03 04:14:00,23.6,9.8,30.07,North,8,3.0,8.0,55,0.00,,,0.00,Wunderground v.1.15,2014-01-03 09:14:00,
2014-01-03 04:18:00,23.4,9.6,30.08,WSW,250,3.0,12.0,55,0.00,,,0.00,Wunderground v.1.15,2014-01-03 09:18:00,
2014-01-03 04:19:00,23.4,9.6,30.08,NW,319,4.0,12.0,55,0.00,,,0.00,Wunderground v.1.15,2014-01-03 09:19:00,
2014-01-03 04:20:00,23.4,9.6,30.08,West,278,2.0,5.0,55,0.00,,,0.00,Wunderground v.1.15,2014-01-03 09:20:00,
2014-01-03 04:21:00,23.3,9.5,30.09,NW,316,5.0,9.0,55,0.00,,,0.00,Wunderground v.1.15,2014-01-03 09:21:00,
2014-01-03 04:23:00,23.2,9.0,30.09,NNE,26,14.0,14.0,54,0.00,,,0.00,Wunderground v.1.15,2014-01-03 09:23:00,
2014-01-03 04:24:00,23.2,9.0,30.09,ESE,105,8.0,14.0,54,0.00,,,0.00,Wunderground v.1.15,2014-01-03 09:24:00,
2014-01-03 04:25:00,23.2,9.0,30.09,NW,325,4.0,14.0,54,0.00,,,0.00,Wunderground v.1.15,2014-01-03 09:25:00,
2014-01-03 04:26:00,23.1,8.9,30.09,West,267,7.0,14.0,54,0.00,,,0.00,Wunderground v.1.15,2014-01-03 09:26:00,
2014-01-03 04:29:00,23.0,8.8,30.10,WNW,300,2.0,14.0,54,0.00,,,0.00,Wunderground v.1.15,2014-01-03 09:29:00,
2014-01-03 04:30:00,23.0,9.2,30.10,SW,218,2.0,4.0,55,0.00,,,0.00,Wunderground v.1.15,2014-01-03 09:30:00,
2014-01-03 04:31:00,22.9,9.1,30.09,SW,234,7.0,7.0,55,0.00,,,0.00,Wunderground v.1.15,2014-01-03 09:31:00,
2014-01-03 04:34:00,22.8,9.0,30.10,West,274,3.0,13.0,55,0.00,,,0.00,Wunderground v.1.15,2014-01-03 09:34:00,
2014-01-03 04:35:00,22.8,9.0,30.10,West,281,8.0,13.0,55,0.00,,,0.00,Wunderground v.1.15,2014-01-03 09:35:00,
2014-01-03 04:37:00,22.7,8.5,30.10,WNW,289,3.0,13.0,54,0.00,,,0.00,Wunderground v.1.15,2014-01-03 09:37:00,
2014-01-03 04:39:00,22.6,8.4,30.11,NNW,333,7.0,13.0,54,0.00,,,0.00,Wunderground v.1.15,2014-01-03 09:39:00,
2014-01-03 04:40:00,22.6,8.4,30.11,NE,43,7.0,7.0,54,0.00,,,0.00,Wunderground v.1.15,2014-01-03 09:40:00,
2014-01-03 04:42:00,22.6,8.0,30.10,SE,132,6.0,12.0,53,0.00,,,0.00,Wunderground v.1.15,2014-01-03 09:42:00,
2014-01-03 04:43:00,22.5,7.9,30.10,NNE,17,13.0,13.0,53,0.00,,,0.00,Wunderground v.1.15,2014-01-03 09:43:00,
2014-01-03 04:44:00,22.5,7.9,30.10,NNE,26,4.0,20.0,53,0.00,,,0.00,Wunderground v.1.15,2014-01-03 09:44:00,
2014-01-03 04:45:00,22.5,7.9,30.09,WNW,302,4.0,20.0,53,0.00,,,0.00,Wunderground v.1.15,2014-01-03 09:45:00,
2014-01-03 04:46:00,22.5,7.9,30.09,WNW,293,4.0,20.0,53,0.00,,,0.00,Wunderground v.1.15,2014-01-03 09:46:00,
2014-01-03 04:47:00,22.4,8.2,30.09,NW,305,7.0,20.0,54,0.00,,,0.00,Wunderground v.1.15,2014-01-03 09:47:00,
2014-01-03 04:48:00,22.4,8.2,30.10,North,352,11.0,20.0,54,0.00,,,0.00,Wunderground v.1.15,2014-01-03 09:48:00,
2014-01-03 04:50:00,22.3,7.7,30.10,NW,316,4.0,6.0,53,0.00,,,0.00,Wunderground v.1.15,2014-01-03 09:50:00,
2014-01-03 04:51:00,22.3,7.7,30.10,WNW,297,7.0,14.0,53,0.00,,,0.00,Wunderground v.1.15,2014-01-03 09:51:00,
2014-01-03 04:52:00,22.2,7.6,30.11,WNW,298,2.0,14.0,53,0.00,,,0.00,Wunderground v.1.15,2014-01-03 09:52:00,
2014-01-03 04:54:00,22.2,8.1,30.11,NW,314,3.0,14.0,54,0.00,,,0.00,Wunderground v.1.15,2014-01-03 09:54:00,
2014-01-03 04:55:00,22.2,7.6,30.11,WNW,295,5.0,20.0,53,0.00,,,0.00,Wunderground v.1.15,2014-01-03 09:55:00,
2014-01-03 04:56:00,22.2,8.1,30.12,North,6,4.0,20.0,54,0.00,,,0.00,Wunderground v.1.15,2014-01-03 09:56:00,
2014-01-03 04:58:00,22.1,8.4,30.12,WNW,302,6.0,20.0,55,0.00,,,0.00,Wunderground v.1.15,2014-01-03 09:58:00,
2014-01-03 05:00:00,22.0,7.9,30.12,NE,56,13.0,15.0,54,0.00,,,0.00,Wunderground v.1.15,2014-01-03 10:00:00,
2014-01-03 05:01:00,22.0,7.9,30.12,NNE,15,10.0,15.0,54,0.00,,,0.00,Wunderground v.1.15,2014-01-03 10:01:00,
2014-01-03 05:02:00,22.0,7.5,30.12,West,276,4.0,15.0,53,0.00,,,0.00,Wunderground v.1.15,2014-01-03 10:02:00,
2014-01-03 05:03:00,21.9,7.8,30.13,West,274,4.0,15.0,54,0.00,,,0.00,Wunderground v.1.15,2014-01-03 10:03:00,
2014-01-03 05:05:00,21.9,7.8,30.13,NW,316,7.0,15.0,54,0.00,,,0.00,Wunderground v.1.15,2014-01-03 10:05:00,
2014-01-03 05:06:00,21.8,7.7,30.13,WSW,250,4.0,16.0,54,0.00,,,0.00,Wunderground v.1.15,2014-01-03 10:06:00,
2014-01-03 05:07:00,21.8,7.3,30.13,NW,318,3.0,16.0,53,0.00,,,0.00,Wunderground v.1.15,2014-01-03 10:07:00,
2014-01-03 05:09:00,21.8,7.7,30.13,NW,314,2.0,16.0,54,0.00,,,0.00,Wunderground v.1.15,2014-01-03 10:09:00,
2014-01-03 05:10:00,21.7,7.6,30.13,WSW,253,6.0,6.0,54,0.00,,,0.00,Wunderground v.1.15,2014-01-03 10:10:00,
2014-01-03 05:11:00,21.7,7.2,30.13,WNW,295,3.0,6.0,53,0.00,,,0.00,Wunderground v.1.15,2014-01-03 10:11:00,
2014-01-03 05:12:00,21.7,7.6,30.13,West,281,2.0,6.0,54,0.00,,,0.00,Wunderground v.1.15,2014-01-03 10:12:00,
2014-01-03 05:15:00,21.5,7.4,30.13,NNW,333,4.0,10.0,54,0.00,,,0.00,Wunderground v.1.15,2014-01-03 10:15:00,
2014-01-03 05:16:00,21.5,7.8,30.13,NNE,23,7.0,10.0,55,0.00,,,0.00,Wunderground v.1.15,2014-01-03 10:16:00,
2014-01-03 05:17:00,21.5,7.4,30.13,WNW,302,4.0,10.0,54,0.00,,,0.00,Wunderground v.1.15,2014-01-03 10:17:00,
2014-01-03 05:20:00,21.4,6.9,30.13,SW,232,2.0,4.0,53,0.00,,,0.00,Wunderground v.1.15,2014-01-03 10:20:00,
2014-01-03 05:21:00,21.4,7.3,30.14,West,281,7.0,7.0,54,0.00,,,0.00,Wunderground v.1.15,2014-01-03 10:21:00,
2014-01-03 05:22:00,21.3,7.2,30.14,ESE,113,4.0,9.0,54,0.00,,,0.00,Wunderground v.1.15,2014-01-03 10:22:00,
2014-01-03 05:23:00,21.4,7.3,30.14,NE,37,7.0,10.0,54,0.00,,,0.00,Wunderground v.1.15,2014-01-03 10:23:00,
2014-01-03 05:26:00,21.3,6.8,30.14,NNE,13,6.0,14.0,53,0.00,,,0.00,Wunderground v.1.15,2014-01-03 10:26:00,
2014-01-03 05:27:00,21.3,7.2,30.14,ENE,58,15.0,16.0,54,0.00,,,0.00,Wunderground v.1.15,2014-01-03 10:27:00,
2014-01-03 05:28:00,21.2,7.1,30.15,NNW,340,4.0,16.0,54,0.00,,,0.00,Wunderground v.1.15,2014-01-03 10:28:00,
2014-01-03 05:31:00,21.2,7.1,30.14,WSW,250,4.0,9.0,54,0.00,,,0.00,Wunderground v.1.15,2014-01-03 10:31:00,
2014-01-03 05:32:00,21.1,7.4,30.14,WSW,248,3.0,9.0,55,0.00,,,0.00,Wunderground v.1.15,2014-01-03 10:32:00,
2014-01-03 05:34:00,21.1,7.0,30.15,NW,304,13.0,13.0,54,0.00,,,0.00,Wunderground v.1.15,2014-01-03 10:34:00,
2014-01-03 05:36:00,21.1,7.0,30.14,West,280,6.0,13.0,54,0.00,,,0.00,Wunderground v.1.15,2014-01-03 10:36:00,
2014-01-03 05:37:00,21.1,7.0,30.14,West,269,3.0,13.0,54,0.00,,,0.00,Wunderground v.1.15,2014-01-03 10:37:00,
2014-01-03 05:39:00,21.0,7.3,30.15,West,280,7.0,13.0,55,0.00,,,0.00,Wunderground v.1.15,2014-01-03 10:39:00,
2014-01-03 05:41:00,21.0,6.9,30.15,WNW,285,15.0,18.0,54,0.00,,,0.00,Wunderground v.1.15,2014-01-03 10:41:00,
2014-01-03 05:42:00,21.0,6.9,30.15,WNW,298,4.0,18.0,54,0.00,,,0.00,Wunderground v.1.15,2014-01-03 10:42:00,
2014-01-03 05:45:00,20.9,7.2,30.14,WNW,297,5.0,18.0,55,0.00,,,0.00,Wunderground v.1.15,2014-01-03 10:45:00,
2014-01-03 05:46:00,20.9,7.2,30.15,West,260,11.0,18.0,55,0.00,,,0.00,Wunderground v.1.15,2014-01-03 10:46:00,
2014-01-03 05:48:00,20.9,7.2,30.14,ENE,62,16.0,18.0,55,0.00,,,0.00,Wunderground v.1.15,2014-01-03 10:48:00,
2014-01-03 05:49:00,20.9,6.8,30.15,WNW,290,5.0,26.0,54,0.00,,,0.00,Wunderground v.1.15,2014-01-03 10:49:00,
2014-01-03 05:51:00,20.9,7.2,30.15,NNE,17,8.0,8.0,55,0.00,,,0.00,Wunderground v.1.15,2014-01-03 10:51:00,
2014-01-03 05:52:00,20.9,7.2,30.15,NNW,346,8.0,9.0,55,0.00,,,0.00,Wunderground v.1.15,2014-01-03 10:52:00,
2014-01-03 05:53:00,20.8,7.6,30.15,SE,128,1.0,9.0,56,0.00,,,0.00,Wunderground v.1.15,2014-01-03 10:53:00,
2014-01-03 05:54:00,20.8,7.6,30.15,NNW,341,2.0,10.0,56,0.00,,,0.00,Wunderground v.1.15,2014-01-03 10:54:00,
2014-01-03 05:55:00,20.8,7.6,30.15,NW,310,2.0,10.0,56,0.00,,,0.00,Wunderground v.1.15,2014-01-03 10:55:00,
2014-01-03 05:56:00,20.8,7.2,30.15,WNW,288,2.0,10.0,55,0.00,,,0.00,Wunderground v.1.15,2014-01-03 10:56:00,
2014-01-03 05:57:00,20.8,7.2,30.15,SW,236,3.0,10.0,55,0.00,,,0.00,Wunderground v.1.15,2014-01-03 10:57:00,
2014-01-03 05:58:00,20.8,7.2,30.15,WNW,288,1.0,10.0,55,0.00,,,0.00,Wunderground v.1.15,2014-01-03 10:58:00,
2014-01-03 05:59:00,20.7,7.1,30.16,West,275,13.0,14.0,55,0.00,,,0.00,Wunderground v.1.15,2014-01-03 10:59:00,
2014-01-03 06:00:00,20.7,7.1,30.16,WNW,293,8.0,10.0,55,0.00,,,0.00,Wunderground v.1.15,2014-01-03 11:00:00,
2014-01-03 06:01:00,20.7,7.1,30.16,WNW,284,2.0,10.0,55,0.00,,,0.00,Wunderground v.1.15,2014-01-03 11:01:00,
2014-01-03 06:02:00,20.7,7.1,30.16,NW,307,3.0,10.0,55,0.00,,,0.00,Wunderground v.1.15,2014-01-03 11:02:00,
2014-01-03 06:03:00,20.7,7.5,30.16,WNW,293,9.0,13.0,56,0.00,,,0.00,Wunderground v.1.15,2014-01-03 11:03:00,
2014-01-03 06:04:00,20.7,7.5,30.16,North,354,6.0,13.0,56,0.00,,,0.00,Wunderground v.1.15,2014-01-03 11:04:00,
2014-01-03 06:05:00,20.7,7.5,30.16,West,279,5.0,13.0,56,0.00,,,0.00,Wunderground v.1.15,2014-01-03 11:05:00,
2014-01-03 06:06:00,20.7,7.1,30.16,West,281,6.0,13.0,55,0.00,,,0.00,Wunderground v.1.15,2014-01-03 11:06:00,
2014-01-03 06:07:00,20.7,7.1,30.16,ENE,76,2.0,13.0,55,0.00,,,0.00,Wunderground v.1.15,2014-01-03 11:07:00,
2014-01-03 06:08:00,20.7,7.1,30.16,WNW,295,3.0,13.0,55,0.00,,,0.00,Wunderground v.1.15,2014-01-03 11:08:00,
2014-01-03 06:09:00,20.7,7.1,30.16,NNE,33,4.0,13.0,55,0.00,,,0.00,Wunderground v.1.15,2014-01-03 11:09:00,
2014-01-03 06:10:00,20.7,7.1,30.16,WNW,298,5.0,5.0,55,0.00,,,0.00,Wunderground v.1.15,2014-01-03 11:10:00,
2014-01-03 06:11:00,20.7,7.5,30.16,West,267,2.0,10.0,56,0.00,,,0.00,Wunderground v.1.15,2014-01-03 11:11:00,
2014-01-03 06:12:00,20.6,7.0,30.16,WNW,295,6.0,10.0,55,0.00,,,0.00,Wunderground v.1.15,2014-01-03 11:12:00,
2014-01-03 06:14:00,20.6,7.4,30.16,WNW,285,5.0,13.0,56,0.00,,,0.00,Wunderground v.1.15,2014-01-03 11:14:00,
2014-01-03 06:15:00,20.6,7.0,30.16,WSW,255,5.0,13.0,55,0.00,,,0.00,Wunderground v.1.15,2014-01-03 11:15:00,
2014-01-03 06:16:00,20.6,7.0,30.17,NE,43,4.0,13.0,55,0.00,,,0.00,Wunderground v.1.15,2014-01-03 11:16:00,
2014-01-03 06:17:00,20.6,7.0,30.17,NW,310,6.0,15.0,55,0.00,,,0.00,Wunderground v.1.15,2014-01-03 11:17:00,
2014-01-03 06:19:00,20.6,7.4,30.17,SE,143,2.0,15.0,56,0.00,,,0.00,Wunderground v.1.15,2014-01-03 11:19:00,
2014-01-03 06:20:00,20.6,7.8,30.17,NW,325,2.0,5.0,57,0.00,,,0.00,Wunderground v.1.15,2014-01-03 11:20:00,
2014-01-03 06:21:00,20.6,7.4,30.17,NW,307,3.0,10.0,56,0.00,,,0.00,Wunderground v.1.15,2014-01-03 11:21:00,
2014-01-03 06:23:00,20.5,7.3,30.18,NNE,26,1.0,13.0,56,0.00,,,0.00,Wunderground v.1.15,2014-01-03 11:23:00,
2014-01-03 06:24:00,20.5,7.3,30.18,East,86,3.0,13.0,56,0.00,,,0.00,Wunderground v.1.15,2014-01-03 11:24:00,
2014-01-03 06:25:00,20.5,7.7,30.18,WNW,297,3.0,13.0,57,0.00,,,0.00,Wunderground v.1.15,2014-01-03 11:25:00,
2014-01-03 06:26:00,20.5,7.7,30.19,NNE,26,4.0,13.0,57,0.00,,,0.00,Wunderground v.1.15,2014-01-03 11:26:00,
2014-01-03 06:29:00,20.5,7.7,30.19,West,278,1.0,13.0,57,0.00,,,0.00,Wunderground v.1.15,2014-01-03 11:29:00,
2014-01-03 06:30:00,20.5,7.7,30.19,North,351,3.0,5.0,57,0.00,,,0.00,Wunderground v.1.15,2014-01-03 11:30:00,
2014-01-03 06:31:00,20.4,7.6,30.19,WSW,252,3.0,7.0,57,0.00,,,0.00,Wunderground v.1.15,2014-01-03 11:31:00,
2014-01-03 06:34:00,20.4,7.2,30.19,West,263,1.0,10.0,56,0.00,,,0.00,Wunderground v.1.15,2014-01-03 11:34:00,
2014-01-03 06:35:00,20.4,7.6,30.19,WSW,245,3.0,10.0,57,0.00,,,0.00,Wunderground v.1.15,2014-01-03 11:35:00,
2014-01-03 06:36:00,20.3,7.5,30.19,WNW,297,5.0,10.0,57,0.00,,,0.00,Wunderground v.1.15,2014-01-03 11:36:00,
2014-01-03 06:37:00,20.3,7.9,30.19,North,359,3.0,10.0,58,0.00,,,0.00,Wunderground v.1.15,2014-01-03 11:37:00,
2014-01-03 06:39:00,20.3,7.5,30.20,WNW,290,5.0,10.0,57,0.00,,,0.00,Wunderground v.1.15,2014-01-03 11:39:00,
2014-01-03 06:40:00,20.3,7.5,30.20,NW,312,4.0,7.0,57,0.00,,,0.00,Wunderground v.1.15,2014-01-03 11:40:00,
2014-01-03 06:41:00,20.3,7.1,30.20,WNW,295,4.0,7.0,56,0.00,,,0.00,Wunderground v.1.15,2014-01-03 11:41:00,
2014-01-03 06:42:00,20.3,7.5,30.20,WNW,297,4.0,10.0,57,0.00,,,0.00,Wunderground v.1.15,2014-01-03 11:42:00,
2014-01-03 06:44:00,20.3,7.5,30.20,WNW,291,5.0,10.0,57,0.00,,,0.00,Wunderground v.1.15,2014-01-03 11:44:00,
2014-01-03 06:45:00,20.3,7.5,30.20,SSE,166,1.0,10.0,57,0.00,,,0.00,Wunderground v.1.15,2014-01-03 11:45:00,
2014-01-03 06:46:00,20.3,7.9,30.20,WNW,297,2.0,10.0,58,0.00,,,0.00,Wunderground v.1.15,2014-01-03 11:46:00,
2014-01-03 06:47:00,20.2,7.8,30.20,NNW,339,4.0,11.0,58,0.00,,,0.00,Wunderground v.1.15,2014-01-03 11:47:00,
2014-01-03 06:49:00,20.2,7.8,30.21,NNE,32,4.0,11.0,58,0.00,,,0.00,Wunderground v.1.15,2014-01-03 11:49:00,
2014-01-03 06:50:00,20.2,8.1,30.21,NW,314,3.0,4.0,59,0.00,,,0.00,Wunderground v.1.15,2014-01-03 11:50:00,
2014-01-03 06:51:00,20.1,8.1,30.21,West,271,1.0,4.0,59,0.00,,,0.00,Wunderground v.1.15,2014-01-03 11:51:00,
2014-01-03 06:53:00,20.1,7.7,30.22,West,278,4.0,6.0,58,0.00,,,0.00,Wunderground v.1.15,2014-01-03 11:53:00,
2014-01-03 06:54:00,20.1,7.7,30.22,West,263,2.0,8.0,58,0.00,,,0.00,Wunderground v.1.15,2014-01-03 11:54:00,
2014-01-03 06:55:00,20.1,8.1,30.22,North,1,3.0,8.0,59,0.00,,,0.00,Wunderground v.1.15,2014-01-03 11:55:00,
2014-01-03 06:56:00,20.1,8.4,30.22,WNW,295,7.0,11.0,60,0.00,,,0.00,Wunderground v.1.15,2014-01-03 11:56:00,
2014-01-03 06:58:00,20.1,7.7,30.22,East,96,2.0,11.0,58,0.00,,,0.00,Wunderground v.1.15,2014-01-03 11:58:00,
2014-01-03 06:59:00,20.1,8.1,30.22,WNW,287,5.0,5.0,59,0.00,,,0.00,Wunderground v.1.15,2014-01-03 11:59:00,
2014-01-03 07:01:00,20.1,7.7,30.22,North,5,0.0,5.0,58,0.00,,,0.00,Wunderground v.1.15,2014-01-03 12:01:00,
2014-01-03 07:02:00,20.1,7.7,30.22,NNW,339,0.0,5.0,58,0.00,,,0.00,Wunderground v.1.15,2014-01-03 12:02:00,
2014-01-03 07:03:00,20.0,7.6,30.22,NNE,28,2.0,5.0,58,0.00,,,0.00,Wunderground v.1.15,2014-01-03 12:03:00,
2014-01-03 07:05:00,20.0,8.0,30.23,WNW,284,6.0,8.0,59,0.00,,,0.00,Wunderground v.1.15,2014-01-03 12:05:00,
2014-01-03 07:06:00,20.0,8.0,30.23,NNE,19,3.0,8.0,59,0.00,,,0.00,Wunderground v.1.15,2014-01-03 12:06:00,
2014-01-03 07:07:00,19.9,7.9,30.23,North,8,3.0,8.0,59,0.00,,,0.00,Wunderground v.1.15,2014-01-03 12:07:00,
2014-01-03 07:08:00,19.9,7.9,30.23,ENE,77,3.0,8.0,59,0.00,,,0.00,Wunderground v.1.15,2014-01-03 12:08:00,
2014-01-03 07:10:00,19.9,7.9,30.22,NW,312,2.0,5.0,59,0.00,,,0.00,Wunderground v.1.15,2014-01-03 12:10:00,
2014-01-03 07:11:00,19.8,7.8,30.22,NW,305,7.0,8.0,59,0.00,,,0.00,Wunderground v.1.15,2014-01-03 12:11:00,
2014-01-03 07:12:00,19.8,7.8,30.22,WNW,288,2.0,8.0,59,0.00,,,0.00,Wunderground v.1.15,2014-01-03 12:12:00,
2014-01-03 07:14:00,19.9,7.9,30.22,NNE,30,4.0,13.0,59,0.00,,,0.00,Wunderground v.1.15,2014-01-03 12:14:00,
2014-01-03 07:15:00,19.8,7.4,30.22,North,355,5.0,13.0,58,0.00,,,0.00,Wunderground v.1.15,2014-01-03 12:15:00,
2014-01-03 07:16:00,19.8,7.4,30.22,West,278,1.0,13.0,58,0.00,,,0.00,Wunderground v.1.15,2014-01-03 12:16:00,
2014-01-03 07:17:00,19.9,7.9,30.22,North,9,3.0,13.0,59,0.00,,,0.00,Wunderground v.1.15,2014-01-03 12:17:00,
2014-01-03 07:19:00,19.9,7.5,30.23,WNW,300,6.0,13.0,58,0.00,,,0.00,Wunderground v.1.15,2014-01-03 12:19:00,
2014-01-03 07:21:00,19.9,7.1,30.22,NNE,20,10.0,14.0,57,0.00,,,0.00,Wunderground v.1.15,2014-01-03 12:21:00,
2014-01-03 07:22:00,19.9,6.7,30.22,NW,319,5.0,16.0,56,0.00,,,0.00,Wunderground v.1.15,2014-01-03 12:22:00,
2014-01-03 07:23:00,19.9,6.7,30.22,West,264,2.0,16.0,56,0.00,,,0.00,Wunderground v.1.15,2014-01-03 12:23:00,
2014-01-03 07:24:00,19.9,6.7,30.22,ENE,60,5.0,16.0,56,0.00,,,0.00,Wunderground v.1.15,2014-01-03 12:24:00,
2014-01-03 07:26:00,19.9,7.1,30.22,West,281,3.0,16.0,57,0.00,,,0.00,Wunderground v.1.15,2014-01-03 12:26:00,
2014-01-03 07:28:00,19.8,7.0,30.22,NNW,341,6.0,16.0,57,0.00,,,0.00,Wunderground v.1.15,2014-01-03 12:28:00,
2014-01-03 07:30:00,19.8,7.0,30.21,SW,224,1.0,5.0,57,0.00,,,0.00,Wunderground v.1.15,2014-01-03 12:30:00,
2014-01-03 07:31:00,19.7,6.5,30.22,WNW,300,3.0,8.0,56,0.00,,,0.00,Wunderground v.1.15,2014-01-03 12:31:00,
2014-01-03 07:33:00,19.7,6.9,30.22,NNE,15,11.0,12.0,57,0.00,,,0.00,Wunderground v.1.15,2014-01-03 12:33:00,
2014-01-03 07:35:00,19.7,6.5,30.21,East,86,5.0,15.0,56,0.00,,,0.00,Wunderground v.1.15,2014-01-03 12:35:00,
2014-01-03 07:36:00,19.7,6.5,30.21,WNW,288,4.0,15.0,56,0.00,,,0.00,Wunderground v.1.15,2014-01-03 12:36:00,
2014-01-03 07:37:00,19.6,6.4,30.21,NNE,28,6.0,15.0,56,0.00,,,0.00,Wunderground v.1.15,2014-01-03 12:37:00,
2014-01-03 07:38:00,19.6,6.8,30.22,West,278,5.0,15.0,57,0.00,,,0.00,Wunderground v.1.15,2014-01-03 12:38:00,
2014-01-03 07:40:00,19.6,6.8,30.22,ENE,63,5.0,6.0,57,0.00,,,0.00,Wunderground v.1.15,2014-01-03 12:40:00,
2014-01-03 07:41:00,19.6,6.8,30.22,East,92,2.0,10.0,57,0.00,,,0.00,Wunderground v.1.15,2014-01-03 12:41:00,
2014-01-03 07:42:00,19.6,6.8,30.22,ESE,106,3.0,10.0,57,0.00,,,0.00,Wunderground v.1.15,2014-01-03 12:42:00,
2014-01-03 07:43:00,19.5,7.1,30.22,NNE,33,5.0,10.0,58,0.00,,,0.00,Wunderground v.1.15,2014-01-03 12:43:00,
2014-01-03 07:45:00,19.5,6.3,30.22,North,359,8.0,17.0,56,0.00,,,0.00,Wunderground v.1.15,2014-01-03 12:45:00,
2014-01-03 07:47:00,19.5,6.3,30.22,NE,56,2.0,17.0,56,0.00,,,0.00,Wunderground v.1.15,2014-01-03 12:47:00,
2014-01-03 07:48:00,19.5,6.7,30.23,ENE,58,6.0,17.0,57,0.00,,,0.00,Wunderground v.1.15,2014-01-03 12:48:00,
2014-01-03 07:49:00,19.5,6.7,30.23,NE,46,5.0,17.0,57,0.00,,,0.00,Wunderground v.1.15,2014-01-03 12:49:00,
2014-01-03 07:51:00,19.5,6.3,30.23,WNW,298,8.0,11.0,56,0.00,,,0.00,Wunderground v.1.15,2014-01-03 12:51:00,
2014-01-03 07:52:00,19.5,6.7,30.23,SW,218,4.0,11.0,57,0.00,,,0.00,Wunderground v.1.15,2014-01-03 12:52:00,
2014-01-03 07:54:00,19.5,7.1,30.23,NW,321,4.0,11.0,58,0.00,,,0.00,Wunderground v.1.15,2014-01-03 12:54:00,
2014-01-03 07:56:00,19.5,6.7,30.23,ENE,70,4.0,11.0,57,0.00,,,0.00,Wunderground v.1.15,2014-01-03 12:56:00,
2014-01-03 07:57:00,19.4,6.6,30.24,NNW,348,3.0,12.0,57,0.00,,,0.00,Wunderground v.1.15,2014-01-03 12:57:00,
2014-01-03 07:58:00,19.5,6.7,30.24,NE,56,3.0,12.0,57,0.00,,,0.00,Wunderground v.1.15,2014-01-03 12:58:00,
2014-01-03 08:00:00,19.5,6.3,30.24,SE,126,2.0,4.0,56,0.00,,,0.00,Wunderground v.1.15,2014-01-03 13:00:00,
2014-01-03 08:02:00,19.5,6.7,30.25,WNW,284,2.0,8.0,57,0.00,,,0.00,Wunderground v.1.15,2014-01-03 13:02:00,
2014-01-03 08:03:00,19.5,6.7,30.25,North,358,4.0,8.0,57,0.00,,,0.00,Wunderground v.1.15,2014-01-03 13:03:00,
2014-01-03 08:05:00,19.5,6.7,30.24,NW,311,4.0,8.0,57,0.00,,,0.00,Wunderground v.1.15,2014-01-03 13:05:00,
2014-01-03 08:06:00,19.5,6.7,30.24,WNW,300,3.0,8.0,57,0.00,,,0.00,Wunderground v.1.15,2014-01-03 13:06:00,
2014-01-03 08:07:00,19.5,6.7,30.25,North,354,3.0,8.0,57,0.00,,,0.00,Wunderground v.1.15,2014-01-03 13:07:00,
2014-01-03 08:08:00,19.5,6.7,30.25,WNW,298,3.0,8.0,57,0.00,,,0.00,Wunderground v.1.15,2014-01-03 13:08:00,
2014-01-03 08:09:00,19.5,6.7,30.25,NNE,21,4.0,8.0,57,0.00,,,0.00,Wunderground v.1.15,2014-01-03 13:09:00,
2014-01-03 08:11:00,19.5,6.7,30.25,NW,316,5.0,5.0,57,0.00,,,0.00,Wunderground v.1.15,2014-01-03 13:11:00,
2014-01-03 08:13:00,19.5,7.1,30.26,West,278,1.0,5.0,58,0.00,,,0.00,Wunderground v.1.15,2014-01-03 13:13:00,
2014-01-03 08:14:00,19.5,7.1,30.26,NW,316,4.0,5.0,58,0.00,,,0.00,Wunderground v.1.15,2014-01-03 13:14:00,
2014-01-03 08:16:00,19.5,7.1,30.26,West,281,8.0,8.0,58,0.00,,,0.00,Wunderground v.1.15,2014-01-03 13:16:00,
2014-01-03 08:18:00,19.5,7.1,30.27,West,266,2.0,8.0,58,0.00,,,0.00,Wunderground v.1.15,2014-01-03 13:18:00,
2014-01-03 08:19:00,19.5,7.1,30.27,West,263,7.0,9.0,58,0.00,,,0.00,Wunderground v.1.15,2014-01-03 13:19:00,
2014-01-03 08:21:00,19.6,6.8,30.27,NE,51,2.0,6.0,57,0.00,,,0.00,Wunderground v.1.15,2014-01-03 13:21:00,
2014-01-03 08:24:00,19.6,7.2,30.27,WNW,285,5.0,6.0,58,0.00,,,0.00,Wunderground v.1.15,2014-01-03 13:24:00,
2014-01-03 08:26:00,19.6,7.2,30.27,NW,307,1.0,10.0,58,0.00,,,0.00,Wunderground v.1.15,2014-01-03 13:26:00,
2014-01-03 08:27:00,19.6,7.2,30.27,NW,304,2.0,10.0,58,0.00,,,0.00,Wunderground v.1.15,2014-01-03 13:27:00,
2014-01-03 08:29:00,19.6,7.6,30.27,East,88,2.0,10.0,59,0.00,,,0.00,Wunderground v.1.15,2014-01-03 13:29:00,
2014-01-03 08:31:00,19.6,7.2,30.27,NE,41,4.0,4.0,58,0.00,,,0.00,Wunderground v.1.15,2014-01-03 13:31:00,
2014-01-03 08:32:00,19.6,7.6,30.27,NW,304,5.0,6.0,59,0.00,,,0.00,Wunderground v.1.15,2014-01-03 13:32:00,
2014-01-03 08:34:00,19.7,7.3,30.27,NNE,24,3.0,6.0,58,0.00,,,0.00,Wunderground v.1.15,2014-01-03 13:34:00,
2014-01-03 08:35:00,19.7,7.3,30.27,NE,52,4.0,13.0,58,0.00,,,0.00,Wunderground v.1.15,2014-01-03 13:35:00,
2014-01-03 08:36:00,19.7,7.3,30.27,ENE,68,3.0,13.0,58,0.00,,,0.00,Wunderground v.1.15,2014-01-03 13:36:00,
2014-01-03 08:37:00,19.8,7.4,30.27,NNW,347,3.0,13.0,58,0.00,,,0.00,Wunderground v.1.15,2014-01-03 13:37:00,
2014-01-03 08:39:00,19.9,7.9,30.27,ENE,70,5.0,13.0,59,0.00,,,0.00,Wunderground v.1.15,2014-01-03 13:39:00,
2014-01-03 08:40:00,19.9,7.9,30.27,North,10,4.0,4.0,59,0.00,,,0.00,Wunderground v.1.15,2014-01-03 13:40:00,
2014-01-03 08:41:00,19.9,7.9,30.27,NW,323,2.0,4.0,59,0.00,,,0.00,Wunderground v.1.15,2014-01-03 13:41:00,
2014-01-03 08:42:00,19.9,7.9,30.27,WNW,288,5.0,6.0,59,0.00,,,0.00,Wunderground v.1.15,2014-01-03 13:42:00,
2014-01-03 08:45:00,20.0,7.6,30.27,NE,49,3.0,10.0,58,0.00,,,0.00,Wunderground v.1.15,2014-01-03 13:45:00,
2014-01-03 08:46:00,20.1,7.7,30.27,North,359,10.0,12.0,58,0.00,,,0.00,Wunderground v.1.15,2014-01-03 13:46:00,
2014-01-03 08:47:00,20.1,7.7,30.27,NNW,338,4.0,12.0,58,0.00,,,0.00,Wunderground v.1.15,2014-01-03 13:47:00,
2014-01-03 08:50:00,20.2,7.4,30.27,East,98,4.0,4.0,57,0.00,,,0.00,Wunderground v.1.15,2014-01-03 13:50:00,
2014-01-03 08:51:00,20.2,7.4,30.28,NNE,26,2.0,7.0,57,0.00,,,0.00,Wunderground v.1.15,2014-01-03 13:51:00,
2014-01-03 08:52:00,20.2,7.4,30.28,West,281,1.0,7.0,57,0.00,,,0.00,Wunderground v.1.15,2014-01-03 13:52:00,
2014-01-03 08:54:00,20.3,7.5,30.28,ENE,73,11.0,13.0,57,0.00,,,0.00,Wunderground v.1.15,2014-01-03 13:54:00,
2014-01-03 08:55:00,20.3,7.5,30.28,WNW,288,11.0,13.0,57,0.00,,,0.00,Wunderground v.1.15,2014-01-03 13:55:00,
2014-01-03 08:56:00,20.3,7.1,30.29,North,1,6.0,13.0,56,0.00,,,0.00,Wunderground v.1.15,2014-01-03 13:56:00,
2014-01-03 08:57:00,20.4,7.2,30.28,ENE,65,6.0,13.0,56,0.00,,,0.00,Wunderground v.1.15,2014-01-03 13:57:00,
2014-01-03 08:58:00,20.4,7.2,30.28,NW,312,3.0,13.0,56,0.00,,,0.00,Wunderground v.1.15,2014-01-03 13:58:00,
2014-01-03 08:59:00,20.4,7.2,30.29,West,281,11.0,13.0,56,0.00,,,0.00,Wunderground v.1.15,2014-01-03 13:59:00,
2014-01-03 09:00:00,20.4,7.6,30.29,WNW,289,3.0,5.0,57,0.00,,,0.00,Wunderground v.1.15,2014-01-03 14:00:00,
2014-01-03 09:01:00,20.5,7.7,30.29,NE,49,8.0,12.0,57,0.00,,,0.00,Wunderground v.1.15,2014-01-03 14:01:00,
2014-01-03 09:02:00,20.5,7.7,30.29,West,276,1.0,12.0,57,0.00,,,0.00,Wunderground v.1.15,2014-01-03 14:02:00,
2014-01-03 09:03:00,20.6,7.8,30.29,NW,319,2.0,12.0,57,0.00,,,0.00,Wunderground v.1.15,2014-01-03 14:03:00,
2014-01-03 09:04:00,20.6,7.8,30.29,WNW,297,3.0,12.0,57,0.00,,,0.00,Wunderground v.1.15,2014-01-03 14:04:00,
2014-01-03 09:05:00,20.7,7.9,30.29,ENE,70,3.0,12.0,57,0.00,,,0.00,Wunderground v.1.15,2014-01-03 14:05:00,
2014-01-03 09:06:00,20.6,7.8,30.29,NNW,340,2.0,12.0,57,0.00,,,0.00,Wunderground v.1.15,2014-01-03 14:06:00,
2014-01-03 09:07:00,20.7,7.5,30.29,NNW,346,4.0,12.0,56,0.00,,,0.00,Wunderground v.1.15,2014-01-03 14:07:00,
2014-01-03 09:08:00,20.7,7.5,30.29,NNE,30,2.0,12.0,56,0.00,,,0.00,Wunderground v.1.15,2014-01-03 14:08:00,
2014-01-03 09:10:00,20.8,7.9,30.29,North,354,4.0,4.0,57,0.00,,,0.00,Wunderground v.1.15,2014-01-03 14:10:00,
2014-01-03 09:11:00,20.8,7.9,30.29,WSW,255,3.0,8.0,57,0.00,,,0.00,Wunderground v.1.15,2014-01-03 14:11:00,
2014-01-03 09:12:00,20.8,7.9,30.30,NNW,344,3.0,8.0,57,0.00,,,0.00,Wunderground v.1.15,2014-01-03 14:12:00,
2014-01-03 09:13:00,20.9,7.6,30.30,WNW,302,3.0,8.0,56,0.00,,,0.00,Wunderground v.1.15,2014-01-03 14:13:00,
2014-01-03 09:15:00,20.9,7.6,30.30,NW,310,7.0,9.0,56,0.00,,,0.00,Wunderground v.1.15,2014-01-03 14:15:00,
2014-01-03 09:16:00,21.0,7.7,30.30,WSW,249,7.0,9.0,56,0.00,,,0.00,Wunderground v.1.15,2014-01-03 14:16:00,
2014-01-03 09:18:00,21.0,7.3,30.30,WSW,257,3.0,9.0,55,0.00,,,0.00,Wunderground v.1.15,2014-01-03 14:18:00,
2014-01-03 09:20:00,21.0,7.3,30.30,West,269,3.0,5.0,55,0.00,,,0.00,Wunderground v.1.15,2014-01-03 14:20:00,
2014-01-03 09:21:00,21.0,7.3,30.30,WNW,293,4.0,5.0,55,0.00,,,0.00,Wunderground v.1.15,2014-01-03 14:21:00,
2014-01-03 09:23:00,21.1,7.8,30.31,North,355,7.0,9.0,56,0.00,,,0.00,Wunderground v.1.15,2014-01-03 14:23:00,
2014-01-03 09:24:00,21.2,7.9,30.31,East,85,3.0,10.0,56,0.00,,,0.00,Wunderground v.1.15,2014-01-03 14:24:00,
2014-01-03 09:25:00,21.2,7.1,30.31,West,281,4.0,10.0,54,0.00,,,0.00,Wunderground v.1.15,2014-01-03 14:25:00,
2014-01-03 09:26:00,21.2,7.1,30.31,NW,304,2.0,10.0,54,0.00,,,0.00,Wunderground v.1.15,2014-01-03 14:26:00,
2014-01-03 09:28:00,21.3,7.6,30.30,SE,131,4.0,13.0,55,0.00,,,0.00,Wunderground v.1.15,2014-01-03 14:28:00,
2014-01-03 09:29:00,21.3,7.6,30.30,West,275,4.0,13.0,55,0.00,,,0.00,Wunderground v.1.15,2014-01-03 14:29:00,
2014-01-03 09:31:00,21.4,7.7,30.31,West,275,3.0,7.0,55,0.00,,,0.00,Wunderground v.1.15,2014-01-03 14:31:00,
2014-01-03 09:34:00,21.5,7.8,30.31,West,262,4.0,16.0,55,0.00,,,0.00,Wunderground v.1.15,2014-01-03 14:34:00,
2014-01-03 09:36:00,21.5,7.4,30.32,NE,44,12.0,16.0,54,0.00,,,0.00,Wunderground v.1.15,2014-01-03 14:36:00,
2014-01-03 09:37:00,21.5,7.0,30.32,East,83,3.0,16.0,53,0.00,,,0.00,Wunderground v.1.15,2014-01-03 14:37:00,
2014-01-03 09:39:00,21.6,7.5,30.32,ENE,60,4.0,16.0,54,0.00,,,0.00,Wunderground v.1.15,2014-01-03 14:39:00,
2014-01-03 09:41:00,21.7,7.6,30.32,NNW,340,7.0,9.0,54,0.00,,,0.00,Wunderground v.1.15,2014-01-03 14:41:00,
2014-01-03 09:42:00,21.7,7.2,30.32,WNW,294,2.0,9.0,53,0.00,,,0.00,Wunderground v.1.15,2014-01-03 14:42:00,
2014-01-03 09:44:00,21.8,7.3,30.33,ENE,61,2.0,9.0,53,0.00,,,0.00,Wunderground v.1.15,2014-01-03 14:44:00,
2014-01-03 09:45:00,21.8,7.7,30.33,NE,49,4.0,9.0,54,0.00,,,0.00,Wunderground v.1.15,2014-01-03 14:45:00,
2014-01-03 09:46:00,21.9,7.8,30.33,East,82,2.0,9.0,54,0.00,,,0.00,Wunderground v.1.15,2014-01-03 14:46:00,
2014-01-03 09:47:00,21.9,7.8,30.33,East,86,2.0,9.0,54,0.00,,,0.00,Wunderground v.1.15,2014-01-03 14:47:00,
2014-01-03 09:49:00,22.0,8.3,30.33,ENE,58,5.0,9.0,55,0.00,,,0.00,Wunderground v.1.15,2014-01-03 14:49:00,
2014-01-03 09:50:00,22.1,8.0,30.33,ENE,72,4.0,4.0,54,0.00,,,0.00,Wunderground v.1.15,2014-01-03 14:50:00,
2014-01-03 09:52:00,22.1,8.0,30.33,NW,323,3.0,10.0,54,0.00,,,0.00,Wunderground v.1.15,2014-01-03 14:52:00,
2014-01-03 09:54:00,22.2,8.1,30.33,NNE,20,4.0,10.0,54,0.00,,,0.00,Wunderground v.1.15,2014-01-03 14:54:00,
2014-01-03 09:55:00,22.2,7.6,30.34,East,93,6.0,10.0,53,0.00,,,0.00,Wunderground v.1.15,2014-01-03 14:55:00,
2014-01-03 09:57:00,22.3,7.7,30.33,NNE,15,3.0,14.0,53,0.00,,,0.00,Wunderground v.1.15,2014-01-03 14:57:00,
2014-01-03 10:00:00,22.4,8.2,30.33,North,357,4.0,6.0,54,0.00,,,0.00,Wunderground v.1.15,2014-01-03 15:00:00,
2014-01-03 10:01:00,22.5,8.7,30.33,NE,47,1.0,6.0,55,0.00,,,0.00,Wunderground v.1.15,2014-01-03 15:01:00,
2014-01-03 10:02:00,22.5,8.3,30.33,NE,52,3.0,6.0,54,0.00,,,0.00,Wunderground v.1.15,2014-01-03 15:02:00,
2014-01-03 10:05:00,22.5,7.9,30.33,NNW,334,1.0,8.0,53,0.00,,,0.00,Wunderground v.1.15,2014-01-03 15:05:00,
2014-01-03 10:06:00,22.5,7.9,30.33,West,264,3.0,8.0,53,0.00,,,0.00,Wunderground v.1.15,2014-01-03 15:06:00,
2014-01-03 10:07:00,22.6,8.0,30.34,NNW,327,2.0,8.0,53,0.00,,,0.00,Wunderground v.1.15,2014-01-03 15:07:00,
2014-01-03 10:10:00,22.8,8.6,30.34,East,83,0.0,3.0,54,0.00,,,0.00,Wunderground v.1.15,2014-01-03 15:10:00,
2014-01-03 10:11:00,22.9,9.1,30.34,ENE,74,1.0,3.0,55,0.00,,,0.00,Wunderground v.1.15,2014-01-03 15:11:00,
2014-01-03 10:12:00,23.0,8.8,30.34,NW,321,2.0,9.0,54,0.00,,,0.00,Wunderground v.1.15,2014-01-03 15:12:00,
2014-01-03 10:15:00,23.1,8.5,30.35,WNW,295,2.0,10.0,53,0.00,,,0.00,Wunderground v.1.15,2014-01-03 15:15:00,
2014-01-03 10:16:00,23.2,8.6,30.35,WNW,285,3.0,10.0,53,0.00,,,0.00,Wunderground v.1.15,2014-01-03 15:16:00,
2014-01-03 10:17:00,23.2,8.2,30.35,NW,304,1.0,10.0,52,0.00,,,0.00,Wunderground v.1.15,2014-01-03 15:17:00,
2014-01-03 10:20:00,23.4,9.2,30.36,NE,53,2.0,3.0,54,0.00,,,0.00,Wunderground v.1.15,2014-01-03 15:20:00,
2014-01-03 10:21:00,23.4,9.2,30.36,WNW,295,1.0,3.0,54,0.00,,,0.00,Wunderground v.1.15,2014-01-03 15:21:00,
2014-01-03 10:22:00,23.5,8.9,30.36,WSW,248,3.0,6.0,53,0.00,,,0.00,Wunderground v.1.15,2014-01-03 15:22:00,
2014-01-03 10:23:00,23.6,8.5,30.36,West,281,1.0,6.0,52,0.00,,,0.00,Wunderground v.1.15,2014-01-03 15:23:00,
2014-01-03 10:25:00,23.6,8.5,30.36,NNE,29,6.0,7.0,52,0.00,,,0.00,Wunderground v.1.15,2014-01-03 15:25:00,
2014-01-03 10:26:00,23.6,8.5,30.36,WNW,297,1.0,7.0,52,0.00,,,0.00,Wunderground v.1.15,2014-01-03 15:26:00,
2014-01-03 10:27:00,23.6,8.9,30.36,SW,228,1.0,7.0,53,0.00,,,0.00,Wunderground v.1.15,2014-01-03 15:27:00,
2014-01-03 10:28:00,23.7,8.6,30.36,NW,316,3.0,7.0,52,0.00,,,0.00,Wunderground v.1.15,2014-01-03 15:28:00,
2014-01-03 10:30:00,23.7,9.0,30.36,NNE,30,5.0,5.0,53,0.00,,,0.00,Wunderground v.1.15,2014-01-03 15:30:00,
2014-01-03 10:31:00,23.8,9.1,30.36,WNW,290,1.0,7.0,53,0.00,,,0.00,Wunderground v.1.15,2014-01-03 15:31:00,
2014-01-03 10:32:00,23.8,8.7,30.36,West,261,3.0,7.0,52,0.00,,,0.00,Wunderground v.1.15,2014-01-03 15:32:00,
2014-01-03 10:33:00,23.8,9.1,30.36,WNW,302,5.0,7.0,53,0.00,,,0.00,Wunderground v.1.15,2014-01-03 15:33:00,
2014-01-03 10:36:00,24.0,8.9,30.36,NW,319,4.0,9.0,52,0.00,,,0.00,Wunderground v.1.15,2014-01-03 15:36:00,
2014-01-03 10:37:00,24.1,9.0,30.36,WNW,286,5.0,9.0,52,0.00,,,0.00,Wunderground v.1.15,2014-01-03 15:37:00,
2014-01-03 10:38:00,24.0,8.5,30.36,West,264,3.0,9.0,51,0.00,,,0.00,Wunderground v.1.15,2014-01-03 15:38:00,
2014-01-03 10:39:00,24.1,8.6,30.36,WNW,302,2.0,9.0,51,0.00,,,0.00,Wunderground v.1.15,2014-01-03 15:39:00,
2014-01-03 10:41:00,24.2,8.7,30.36,SE,131,3.0,8.0,51,0.00,,,0.00,Wunderground v.1.15,2014-01-03 15:41:00,
2014-01-03 10:42:00,24.3,8.7,30.37,NW,312,5.0,8.0,51,0.00,,,0.00,Wunderground v.1.15,2014-01-03 15:42:00,
2014-01-03 10:43:00,24.3,8.7,30.37,West,264,3.0,8.0,51,0.00,,,0.00,Wunderground v.1.15,2014-01-03 15:43:00,
2014-01-03 10:44:00,24.3,8.7,30.37,WNW,285,5.0,8.0,51,0.00,,,0.00,Wunderground v.1.15,2014-01-03 15:44:00,
2014-01-03 10:46:00,24.4,8.8,30.37,NNE,20,4.0,8.0,51,0.00,,,0.00,Wunderground v.1.15,2014-01-03 15:46:00,
2014-01-03 10:47:00,24.5,8.9,30.38,ESE,105,3.0,8.0,51,0.00,,,0.00,Wunderground v.1.15,2014-01-03 15:47:00,
2014-01-03 10:48:00,24.5,8.0,30.38,NW,308,6.0,9.0,49,0.00,,,0.00,Wunderground v.1.15,2014-01-03 15:48:00,
2014-01-03 10:49:00,24.4,7.9,30.38,NNE,27,3.0,9.0,49,0.00,,,0.00,Wunderground v.1.15,2014-01-03 15:49:00,
2014-01-03 10:51:00,24.5,8.5,30.38,NE,53,3.0,4.0,50,0.00,,,0.00,Wunderground v.1.15,2014-01-03 15:51:00,
2014-01-03 10:52:00,24.6,9.0,30.38,SE,146,1.0,6.0,51,0.00,,,0.00,Wunderground v.1.15,2014-01-03 15:52:00,
2014-01-03 10:53:00,24.6,9.0,30.38,WNW,293,4.0,6.0,51,0.00,,,0.00,Wunderground v.1.15,2014-01-03 15:53:00,
2014-01-03 10:54:00,24.7,9.1,30.38,NE,44,4.0,6.0,51,0.00,,,0.00,Wunderground v.1.15,2014-01-03 15:54:00,
2014-01-03 10:56:00,24.7,8.7,30.38,East,94,2.0,8.0,50,0.00,,,0.00,Wunderground v.1.15,2014-01-03 15:56:00,
2014-01-03 10:58:00,24.9,9.3,30.38,ESE,115,2.0,8.0,51,0.00,,,0.00,Wunderground v.1.15,2014-01-03 15:58:00,
2014-01-03 10:59:00,24.9,8.4,30.38,NW,314,3.0,8.0,49,0.00,,,0.00,Wunderground v.1.15,2014-01-03 15:59:00,
2014-01-03 11:01:00,25.0,9.0,30.37,East,97,5.0,6.0,50,0.00,,,0.00,Wunderground v.1.15,2014-01-03 16:01:00,
2014-01-03 11:02:00,25.1,9.0,30.37,SE,142,3.0,6.0,50,0.00,,,0.00,Wunderground v.1.15,2014-01-03 16:02:00,
2014-01-03 11:03:00,25.2,9.1,30.37,NW,316,6.0,6.0,50,0.00,,,0.00,Wunderground v.1.15,2014-01-03 16:03:00,
2014-01-03 11:04:00,25.2,8.7,30.37,NE,56,2.0,8.0,49,0.00,,,0.00,Wunderground v.1.15,2014-01-03 16:04:00,
2014-01-03 11:05:00,25.3,8.8,30.37,NW,304,3.0,8.0,49,0.00,,,0.00,Wunderground v.1.15,2014-01-03 16:05:00,
2014-01-03 11:06:00,25.3,8.8,30.37,East,94,3.0,8.0,49,0.00,,,0.00,Wunderground v.1.15,2014-01-03 16:06:00,
2014-01-03 11:07:00,25.4,8.9,30.37,NE,39,3.0,8.0,49,0.00,,,0.00,Wunderground v.1.15,2014-01-03 16:07:00,
2014-01-03 11:08:00,25.5,9.4,30.37,NNE,30,4.0,8.0,50,0.00,,,0.00,Wunderground v.1.15,2014-01-03 16:08:00,
2014-01-03 11:10:00,25.7,9.2,30.37,WNW,295,4.0,4.0,49,0.00,,,0.00,Wunderground v.1.15,2014-01-03 16:10:00,
2014-01-03 11:11:00,25.7,9.2,30.37,NNW,335,3.0,4.0,49,0.00,,,0.00,Wunderground v.1.15,2014-01-03 16:11:00,
2014-01-03 11:12:00,25.8,9.2,30.37,WNW,288,2.0,5.0,49,0.00,,,0.00,Wunderground v.1.15,2014-01-03 16:12:00,
2014-01-03 11:14:00,25.8,9.2,30.37,SSW,205,2.0,5.0,49,0.00,,,0.00,Wunderground v.1.15,2014-01-03 16:14:00,
2014-01-03 11:15:00,25.9,10.2,30.37,West,276,0.0,6.0,51,0.00,,,0.00,Wunderground v.1.15,2014-01-03 16:15:00,
2014-01-03 11:16:00,26.0,10.3,30.37,WSW,250,3.0,8.0,51,0.00,,,0.00,Wunderground v.1.15,2014-01-03 16:16:00,
2014-01-03 11:18:00,26.1,9.5,30.38,WNW,293,6.0,9.0,49,0.00,,,0.00,Wunderground v.1.15,2014-01-03 16:18:00,
2014-01-03 11:19:00,26.1,9.5,30.38,WNW,302,2.0,9.0,49,0.00,,,0.00,Wunderground v.1.15,2014-01-03 16:19:00,
2014-01-03 11:20:00,26.1,9.5,30.37,ENE,65,7.0,7.0,49,0.00,,,0.00,Wunderground v.1.15,2014-01-03 16:20:00,
2014-01-03 11:21:00,26.1,10.0,30.37,West,259,3.0,7.0,50,0.00,,,0.00,Wunderground v.1.15,2014-01-03 16:21:00,
2014-01-03 11:24:00,26.1,9.5,30.38,SSW,203,2.0,7.0,49,0.00,,,0.00,Wunderground v.1.15,2014-01-03 16:24:00,
2014-01-03 11:25:00,26.0,9.0,30.37,NE,47,5.0,7.0,48,0.00,,,0.00,Wunderground v.1.15,2014-01-03 16:25:00,
2014-01-03 11:26:00,26.0,9.4,30.37,WNW,300,0.0,7.0,49,0.00,,,0.00,Wunderground v.1.15,2014-01-03 16:26:00,
2014-01-03 11:30:00,26.0,9.4,30.37,NW,326,1.0,3.0,49,0.00,,,0.00,Wunderground v.1.15,2014-01-03 16:30:00,
2014-01-03 11:31:00,26.0,9.9,30.37,WNW,290,2.0,5.0,50,0.00,,,0.00,Wunderground v.1.15,2014-01-03 16:31:00,
2014-01-03 11:33:00,26.1,9.5,30.37,West,278,1.0,5.0,49,0.00,,,0.00,Wunderground v.1.15,2014-01-03 16:33:00,
2014-01-03 11:35:00,26.1,8.6,30.37,WSW,255,1.0,11.0,47,0.00,,,0.00,Wunderground v.1.15,2014-01-03 16:35:00,
2014-01-03 11:36:00,26.1,9.5,30.37,NE,53,1.0,11.0,49,0.00,,,0.00,Wunderground v.1.15,2014-01-03 16:36:00,
2014-01-03 11:38:00,26.2,10.1,30.38,ENE,68,2.0,11.0,50,0.00,,,0.00,Wunderground v.1.15,2014-01-03 16:38:00,
2014-01-03 11:40:00,26.4,9.3,30.37,ENE,68,2.0,3.0,48,0.00,,,0.00,Wunderground v.1.15,2014-01-03 16:40:00,
2014-01-03 11:41:00,26.4,9.3,30.38,ENE,68,4.0,5.0,48,0.00,,,0.00,Wunderground v.1.15,2014-01-03 16:41:00,
2014-01-03 11:42:00,26.4,9.3,30.38,NE,41,5.0,5.0,48,0.00,,,0.00,Wunderground v.1.15,2014-01-03 16:42:00,
2014-01-03 11:43:00,26.4,9.3,30.38,SE,143,0.0,6.0,48,0.00,,,0.00,Wunderground v.1.15,2014-01-03 16:43:00,
2014-01-03 11:45:00,26.5,10.3,30.38,West,261,2.0,6.0,50,0.00,,,0.00,Wunderground v.1.15,2014-01-03 16:45:00,
2014-01-03 11:46:00,26.5,9.9,30.38,ENE,73,0.0,6.0,49,0.00,,,0.00,Wunderground v.1.15,2014-01-03 16:46:00,
2014-01-03 11:47:00,26.5,9.9,30.38,SE,131,2.0,6.0,49,0.00,,,0.00,Wunderground v.1.15,2014-01-03 16:47:00,
2014-01-03 11:48:00,26.5,9.4,30.38,NE,41,2.0,6.0,48,0.00,,,0.00,Wunderground v.1.15,2014-01-03 16:48:00,
2014-01-03 11:50:00,26.5,9.0,30.38,ENE,70,3.0,5.0,47,0.00,,,0.00,Wunderground v.1.15,2014-01-03 16:50:00,
2014-01-03 11:51:00,26.5,9.4,30.38,NE,53,2.0,5.0,48,0.00,,,0.00,Wunderground v.1.15,2014-01-03 16:51:00,
2014-01-03 11:52:00,26.5,9.9,30.38,ENE,63,6.0,6.0,49,0.00,,,0.00,Wunderground v.1.15,2014-01-03 16:52:00,
2014-01-03 11:55:00,26.7,9.6,30.38,NW,319,4.0,11.0,48,0.00,,,0.00,Wunderground v.1.15,2014-01-03 16:55:00,
2014-01-03 11:56:00,26.7,9.6,30.38,NNE,23,1.0,11.0,48,0.00,,,0.00,Wunderground v.1.15,2014-01-03 16:56:00,
2014-01-03 11:57:00,26.7,10.1,30.38,North,4,1.0,11.0,49,0.00,,,0.00,Wunderground v.1.15,2014-01-03 16:57:00,
2014-01-03 12:00:00,26.8,9.7,30.38,WNW,288,3.0,4.0,48,0.00,,,0.00,Wunderground v.1.15,2014-01-03 17:00:00,
2014-01-03 12:01:00,27.0,9.9,30.38,NE,44,1.0,4.0,48,0.00,,,0.00,Wunderground v.1.15,2014-01-03 17:01:00,
2014-01-03 12:02:00,27.0,9.9,30.38,West,264,4.0,5.0,48,0.00,,,0.00,Wunderground v.1.15,2014-01-03 17:02:00,
2014-01-03 12:05:00,27.1,9.5,30.38,ENE,72,10.0,10.0,47,0.00,,,0.00,Wunderground v.1.15,2014-01-03 17:05:00,
2014-01-03 12:06:00,27.1,9.5,30.38,NNW,339,5.0,16.0,47,0.00,,,0.00,Wunderground v.1.15,2014-01-03 17:06:00,
2014-01-03 12:07:00,27.2,9.6,30.38,West,278,3.0,16.0,47,0.00,,,0.00,Wunderground v.1.15,2014-01-03 17:07:00,
2014-01-03 12:08:00,27.2,9.6,30.38,West,281,3.0,16.0,47,0.00,,,0.00,Wunderground v.1.15,2014-01-03 17:08:00,
2014-01-03 12:10:00,27.4,9.3,30.38,West,276,3.0,8.0,46,0.00,,,0.00,Wunderground v.1.15,2014-01-03 17:10:00,
2014-01-03 12:11:00,27.4,9.3,30.38,NW,305,5.0,8.0,46,0.00,,,0.00,Wunderground v.1.15,2014-01-03 17:11:00,
2014-01-03 12:12:00,27.4,9.3,30.38,WSW,248,3.0,8.0,46,0.00,,,0.00,Wunderground v.1.15,2014-01-03 17:12:00,
2014-01-03 12:13:00,27.5,8.9,30.38,West,281,2.0,8.0,45,0.00,,,0.00,Wunderground v.1.15,2014-01-03 17:13:00,
2014-01-03 12:16:00,27.5,9.4,30.38,NNW,346,3.0,8.0,46,0.00,,,0.00,Wunderground v.1.15,2014-01-03 17:16:00,
2014-01-03 12:17:00,27.5,9.4,30.38,NNW,348,3.0,8.0,46,0.00,,,0.00,Wunderground v.1.15,2014-01-03 17:17:00,
2014-01-03 12:18:00,27.5,8.9,30.38,NNW,345,2.0,8.0,45,0.00,,,0.00,Wunderground v.1.15,2014-01-03 17:18:00,
2014-01-03 12:21:00,27.6,9.0,30.38,West,264,3.0,5.0,45,0.00,,,0.00,Wunderground v.1.15,2014-01-03 17:21:00,
2014-01-03 12:22:00,27.6,9.0,30.38,NW,305,2.0,5.0,45,0.00,,,0.00,Wunderground v.1.15,2014-01-03 17:22:00,
2014-01-03 12:23:00,27.6,8.5,30.38,SW,218,4.0,5.0,44,0.00,,,0.00,Wunderground v.1.15,2014-01-03 17:23:00,
2014-01-03 12:26:00,27.6,8.0,30.38,WSW,250,2.0,7.0,43,0.00,,,0.00,Wunderground v.1.15,2014-01-03 17:26:00,
2014-01-03 12:27:00,27.6,8.5,30.38,WNW,285,5.0,9.0,44,0.00,,,0.00,Wunderground v.1.15,2014-01-03 17:27:00,
2014-01-03 12:28:00,27.6,8.0,30.38,NW,321,2.0,9.0,43,0.00,,,0.00,Wunderground v.1.15,2014-01-03 17:28:00,
2014-01-03 12:32:00,27.7,8.6,30.38,SE,132,1.0,5.0,44,0.00,,,0.00,Wunderground v.1.15,2014-01-03 17:32:00,
2014-01-03 12:33:00,27.7,8.6,30.38,WNW,283,1.0,5.0,44,0.00,,,0.00,Wunderground v.1.15,2014-01-03 17:33:00,
2014-01-03 12:37:00,28.0,7.8,30.39,NW,321,3.0,8.0,42,0.00,,,0.00,Wunderground v.1.15,2014-01-03 17:37:00,
2014-01-03 12:38:00,28.1,7.9,30.39,East,84,3.0,8.0,42,0.00,,,0.00,Wunderground v.1.15,2014-01-03 17:38:00,
2014-01-03 12:39:00,28.1,7.4,30.39,WNW,288,2.0,8.0,41,0.00,,,0.00,Wunderground v.1.15,2014-01-03 17:39:00,
2014-01-03 12:42:00,28.3,7.6,30.38,NE,35,10.0,10.0,41,0.00,,,0.00,Wunderground v.1.15,2014-01-03 17:42:00,
2014-01-03 12:43:00,28.3,7.0,30.38,NW,314,3.0,10.0,40,0.00,,,0.00,Wunderground v.1.15,2014-01-03 17:43:00,
2014-01-03 12:44:00,28.4,7.7,30.38,West,276,5.0,10.0,41,0.00,,,0.00,Wunderground v.1.15,2014-01-03 17:44:00,
2014-01-03 12:47:00,28.4,6.6,30.38,SW,215,3.0,10.0,39,0.00,,,0.00,Wunderground v.1.15,2014-01-03 17:47:00,
2014-01-03 12:48:00,28.4,6.6,30.38,WNW,294,5.0,10.0,39,0.00,,,0.00,Wunderground v.1.15,2014-01-03 17:48:00,
2014-01-03 12:49:00,28.4,7.1,30.38,West,281,3.0,10.0,40,0.00,,,0.00,Wunderground v.1.15,2014-01-03 17:49:00,
2014-01-03 12:50:00,28.5,7.2,30.38,WNW,283,5.0,5.0,40,0.00,,,0.00,Wunderground v.1.15,2014-01-03 17:50:00,
2014-01-03 12:52:00,28.6,7.3,30.38,East,90,2.0,7.0,40,0.00,,,0.00,Wunderground v.1.15,2014-01-03 17:52:00,
2014-01-03 12:54:00,28.7,7.9,30.38,NE,35,3.0,8.0,41,0.00,,,0.00,Wunderground v.1.15,2014-01-03 17:54:00,
2014-01-03 12:55:00,28.8,7.5,30.38,North,359,11.0,11.0,40,0.00,,,0.00,Wunderground v.1.15,2014-01-03 17:55:00,
2014-01-03 12:58:00,28.8,6.9,30.37,WNW,283,3.0,11.0,39,0.00,,,0.00,Wunderground v.1.15,2014-01-03 17:58:00,
2014-01-03 12:59:00,28.8,6.9,30.37,NW,308,1.0,11.0,39,0.00,,,0.00,Wunderground v.1.15,2014-01-03 17:59:00,
2014-01-03 13:00:00,28.8,8.0,30.37,ENE,67,7.0,8.0,41,0.00,,,0.00,Wunderground v.1.15,2014-01-03 18:00:00,
2014-01-03 13:01:00,28.8,6.9,30.37,East,85,2.0,8.0,39,0.00,,,0.00,Wunderground v.1.15,2014-01-03 18:01:00,
2014-01-03 13:03:00,28.9,7.6,30.37,WNW,302,6.0,9.0,40,0.00,,,0.00,Wunderground v.1.15,2014-01-03 18:03:00,
2014-01-03 13:04:00,28.9,7.6,30.37,WNW,301,3.0,9.0,40,0.00,,,0.00,Wunderground v.1.15,2014-01-03 18:04:00,
2014-01-03 13:05:00,29.0,7.1,30.37,NW,321,2.0,9.0,39,0.00,,,0.00,Wunderground v.1.15,2014-01-03 18:05:00,
2014-01-03 13:06:00,29.0,7.1,30.37,North,354,2.0,9.0,39,0.00,,,0.00,Wunderground v.1.15,2014-01-03 18:06:00,
2014-01-03 13:08:00,29.0,7.7,30.37,WNW,283,3.0,9.0,40,0.00,,,0.00,Wunderground v.1.15,2014-01-03 18:08:00,
2014-01-03 13:09:00,29.0,7.1,30.37,WNW,293,2.0,9.0,39,0.00,,,0.00,Wunderground v.1.15,2014-01-03 18:09:00,
2014-01-03 13:10:00,29.1,7.2,30.36,SW,232,2.0,5.0,39,0.00,,,0.00,Wunderground v.1.15,2014-01-03 18:10:00,
2014-01-03 13:12:00,29.1,7.2,30.36,West,259,3.0,5.0,39,0.00,,,0.00,Wunderground v.1.15,2014-01-03 18:12:00,
2014-01-03 13:13:00,29.1,7.2,30.36,NW,314,4.0,6.0,39,0.00,,,0.00,Wunderground v.1.15,2014-01-03 18:13:00,
2014-01-03 13:14:00,29.1,7.2,30.36,WNW,287,1.0,6.0,39,0.00,,,0.00,Wunderground v.1.15,2014-01-03 18:14:00,
2014-01-03 13:15:00,29.2,7.8,30.37,West,277,2.0,6.0,40,0.00,,,0.00,Wunderground v.1.15,2014-01-03 18:15:00,
2014-01-03 13:16:00,29.2,7.8,30.36,NW,304,2.0,7.0,40,0.00,,,0.00,Wunderground v.1.15,2014-01-03 18:16:00,
2014-01-03 13:17:00,29.3,7.9,30.37,NE,46,3.0,8.0,40,0.00,,,0.00,Wunderground v.1.15,2014-01-03 18:17:00,
2014-01-03 13:18:00,29.4,8.0,30.37,NNW,346,2.0,8.0,40,0.00,,,0.00,Wunderground v.1.15,2014-01-03 18:18:00,
2014-01-03 13:19:00,29.4,7.5,30.37,NW,319,2.0,8.0,39,0.00,,,0.00,Wunderground v.1.15,2014-01-03 18:19:00,
2014-01-03 13:20:00,29.4,7.5,30.37,NW,314,1.0,4.0,39,0.00,,,0.00,Wunderground v.1.15,2014-01-03 18:20:00,
2014-01-03 13:21:00,29.5,7.5,30.38,West,260,1.0,4.0,39,0.00,,,0.00,Wunderground v.1.15,2014-01-03 18:21:00,
2014-01-03 13:24:00,29.5,7.0,30.37,East,101,1.0,4.0,38,0.00,,,0.00,Wunderground v.1.15,2014-01-03 18:24:00,
2014-01-03 13:25:00,29.5,7.0,30.37,West,278,3.0,6.0,38,0.00,,,0.00,Wunderground v.1.15,2014-01-03 18:25:00,
2014-01-03 13:26:00,29.6,7.1,30.37,NW,314,3.0,6.0,38,0.00,,,0.00,Wunderground v.1.15,2014-01-03 18:26:00,
2014-01-03 13:27:00,29.7,8.3,30.37,WNW,295,2.0,11.0,40,0.00,,,0.00,Wunderground v.1.15,2014-01-03 18:27:00,
2014-01-03 13:29:00,29.9,6.7,30.37,NE,55,1.0,11.0,37,0.00,,,0.00,Wunderground v.1.15,2014-01-03 18:29:00,
2014-01-03 13:30:00,29.9,7.9,30.37,NW,316,1.0,2.0,39,0.00,,,0.00,Wunderground v.1.15,2014-01-03 18:30:00,
2014-01-03 13:31:00,30.0,6.2,30.37,SSW,198,1.0,7.0,36,0.00,,,0.00,Wunderground v.1.15,2014-01-03 18:31:00,
2014-01-03 13:32:00,30.0,6.2,30.37,ENE,76,3.0,7.0,36,0.00,,,0.00,Wunderground v.1.15,2014-01-03 18:32:00,
2014-01-03 13:34:00,30.0,6.2,30.37,NNW,342,0.0,7.0,36,0.00,,,0.00,Wunderground v.1.15,2014-01-03 18:34:00,
2014-01-03 13:35:00,29.9,6.1,30.37,NNW,338,0.0,7.0,36,0.00,,,0.00,Wunderground v.1.15,2014-01-03 18:35:00,
2014-01-03 13:36:00,29.9,6.1,30.37,NW,305,2.0,7.0,36,0.00,,,0.00,Wunderground v.1.15,2014-01-03 18:36:00,
2014-01-03 13:37:00,29.9,7.3,30.37,WSW,238,0.0,7.0,38,0.00,,,0.00,Wunderground v.1.15,2014-01-03 18:37:00,
2014-01-03 13:40:00,30.1,8.1,30.37,NNE,30,4.0,4.0,39,0.00,,,0.00,Wunderground v.1.15,2014-01-03 18:40:00,
2014-01-03 13:41:00,30.1,7.5,30.37,SW,225,1.0,4.0,38,0.00,,,0.00,Wunderground v.1.15,2014-01-03 18:41:00,
2014-01-03 13:43:00,30.1,5.7,30.37,NNW,342,2.0,5.0,35,0.00,,,0.00,Wunderground v.1.15,2014-01-03 18:43:00,
2014-01-03 13:45:00,30.0,6.2,30.37,WNW,293,3.0,7.0,36,0.00,,,0.00,Wunderground v.1.15,2014-01-03 18:45:00,
2014-01-03 13:46:00,30.1,6.3,30.37,West,263,2.0,7.0,36,0.00,,,0.00,Wunderground v.1.15,2014-01-03 18:46:00,
2014-01-03 13:47:00,30.2,8.2,30.37,NE,56,2.0,7.0,39,0.00,,,0.00,Wunderground v.1.15,2014-01-03 18:47:00,
2014-01-03 13:48:00,30.3,7.7,30.37,ENE,68,4.0,7.0,38,0.00,,,0.00,Wunderground v.1.15,2014-01-03 18:48:00,
2014-01-03 13:50:00,30.4,6.6,30.37,WNW,289,2.0,3.0,36,0.00,,,0.00,Wunderground v.1.15,2014-01-03 18:50:00,
2014-01-03 13:51:00,30.4,7.2,30.37,North,10,3.0,4.0,37,0.00,,,0.00,Wunderground v.1.15,2014-01-03 18:51:00,
2014-01-03 13:52:00,30.4,6.0,30.36,NNW,338,3.0,6.0,35,0.00,,,0.00,Wunderground v.1.15,2014-01-03 18:52:00,
2014-01-03 13:54:00,30.4,6.0,30.36,NE,36,3.0,6.0,35,0.00,,,0.00,Wunderground v.1.15,2014-01-03 18:54:00,
2014-01-03 13:55:00,30.4,6.0,30.37,WNW,283,4.0,6.0,35,0.00,,,0.00,Wunderground v.1.15,2014-01-03 18:55:00,
2014-01-03 13:56:00,30.4,6.0,30.36,WNW,290,3.0,6.0,35,0.00,,,0.00,Wunderground v.1.15,2014-01-03 18:56:00,
2014-01-03 13:57:00,30.4,6.0,30.36,West,281,3.0,6.0,35,0.00,,,0.00,Wunderground v.1.15,2014-01-03 18:57:00,
2014-01-03 13:59:00,30.6,7.4,30.36,NNW,330,4.0,9.0,37,0.00,,,0.00,Wunderground v.1.15,2014-01-03 18:59:00,
2014-01-03 14:01:00,30.6,6.8,30.36,NW,321,4.0,7.0,36,0.00,,,0.00,Wunderground v.1.15,2014-01-03 19:01:00,
2014-01-03 14:02:00,30.6,6.1,30.36,WNW,287,1.0,7.0,35,0.00,,,0.00,Wunderground v.1.15,2014-01-03 19:02:00,
2014-01-03 14:05:00,30.5,6.1,30.36,WSW,248,3.0,7.0,35,0.00,,,0.00,Wunderground v.1.15,2014-01-03 19:05:00,
2014-01-03 14:06:00,30.4,5.3,30.36,NNW,337,2.0,7.0,34,0.00,,,0.00,Wunderground v.1.15,2014-01-03 19:06:00,
2014-01-03 14:07:00,30.4,5.3,30.37,WNW,284,1.0,7.0,34,0.00,,,0.00,Wunderground v.1.15,2014-01-03 19:07:00,
2014-01-03 14:08:00,30.4,6.6,30.36,WSW,252,5.0,7.0,36,0.00,,,0.00,Wunderground v.1.15,2014-01-03 19:08:00,
2014-01-03 14:11:00,30.5,6.1,30.36,West,261,1.0,3.0,35,0.00,,,0.00,Wunderground v.1.15,2014-01-03 19:11:00,
2014-01-03 14:12:00,30.6,6.8,30.36,West,261,2.0,3.0,36,0.00,,,0.00,Wunderground v.1.15,2014-01-03 19:12:00,
2014-01-03 14:13:00,30.7,6.2,30.37,West,264,1.0,4.0,35,0.00,,,0.00,Wunderground v.1.15,2014-01-03 19:13:00,
2014-01-03 14:16:00,30.8,6.9,30.37,NNE,13,2.0,7.0,36,0.00,,,0.00,Wunderground v.1.15,2014-01-03 19:16:00,
2014-01-03 14:17:00,30.9,7.6,30.37,NE,49,3.0,7.0,37,0.00,,,0.00,Wunderground v.1.15,2014-01-03 19:17:00,
2014-01-03 14:18:00,30.9,7.6,30.37,NNE,27,3.0,7.0,37,0.00,,,0.00,Wunderground v.1.15,2014-01-03 19:18:00,
2014-01-03 14:21:00,31.0,7.1,30.37,ENE,68,2.0,5.0,36,0.00,,,0.00,Wunderground v.1.15,2014-01-03 19:21:00,
2014-01-03 14:22:00,31.0,7.1,30.37,ESE,108,0.0,5.0,36,0.00,,,0.00,Wunderground v.1.15,2014-01-03 19:22:00,
2014-01-03 14:23:00,31.0,7.1,30.37,East,90,1.0,5.0,36,0.00,,,0.00,Wunderground v.1.15,2014-01-03 19:23:00,
2014-01-03 14:26:00,31.1,7.2,30.37,WNW,287,2.0,5.0,36,0.00,,,0.00,Wunderground v.1.15,2014-01-03 19:26:00,
2014-01-03 14:27:00,31.2,7.3,30.37,NW,308,1.0,5.0,36,0.00,,,0.00,Wunderground v.1.15,2014-01-03 19:27:00,
2014-01-03 14:28:00,31.2,7.3,30.37,WNW,285,2.0,5.0,36,0.00,,,0.00,Wunderground v.1.15,2014-01-03 19:28:00,
2014-01-03 14:32:00,31.3,6.1,30.37,East,92,1.0,4.0,34,0.00,,,0.00,Wunderground v.1.15,2014-01-03 19:32:00,
2014-01-03 14:33:00,31.3,6.8,30.37,NNE,19,3.0,4.0,35,0.00,,,0.00,Wunderground v.1.15,2014-01-03 19:33:00,
2014-01-03 14:34:00,31.3,6.1,30.37,NNE,15,1.0,4.0,34,0.00,,,0.00,Wunderground v.1.15,2014-01-03 19:34:00,
2014-01-03 14:37:00,31.3,6.1,30.37,West,280,1.0,7.0,34,0.00,,,0.00,Wunderground v.1.15,2014-01-03 19:37:00,
2014-01-03 14:38:00,31.3,5.5,30.37,WSW,245,3.0,7.0,33,0.00,,,0.00,Wunderground v.1.15,2014-01-03 19:38:00,
2014-01-03 14:39:00,31.3,5.5,30.37,NNW,339,2.0,7.0,33,0.00,,,0.00,Wunderground v.1.15,2014-01-03 19:39:00,
2014-01-03 14:42:00,31.3,6.8,30.37,NNW,346,1.0,3.0,35,0.00,,,0.00,Wunderground v.1.15,2014-01-03 19:42:00,
2014-01-03 14:43:00,31.4,7.5,30.37,WNW,300,2.0,3.0,36,0.00,,,0.00,Wunderground v.1.15,2014-01-03 19:43:00,
2014-01-03 14:44:00,31.4,7.5,30.37,NW,308,2.0,4.0,36,0.00,,,0.00,Wunderground v.1.15,2014-01-03 19:44:00,
2014-01-03 14:47:00,31.6,7.0,30.37,WSW,255,0.0,7.0,35,0.00,,,0.00,Wunderground v.1.15,2014-01-03 19:47:00,
2014-01-03 14:49:00,31.7,6.5,30.37,WNW,289,2.0,7.0,34,0.00,,,0.00,Wunderground v.1.15,2014-01-03 19:49:00,
2014-01-03 14:50:00,31.7,6.5,30.37,WSW,255,0.0,2.0,34,0.00,,,0.00,Wunderground v.1.15,2014-01-03 19:50:00,
2014-01-03 14:53:00,31.6,5.7,30.37,NW,308,3.0,5.0,33,0.00,,,0.00,Wunderground v.1.15,2014-01-03 19:53:00,
2014-01-03 14:54:00,31.6,6.4,30.37,WSW,257,1.0,5.0,34,0.00,,,0.00,Wunderground v.1.15,2014-01-03 19:54:00,
2014-01-03 14:55:00,31.7,6.5,30.37,NW,305,6.0,6.0,34,0.00,,,0.00,Wunderground v.1.15,2014-01-03 19:55:00,
2014-01-03 14:58:00,31.7,6.5,30.37,West,281,2.0,6.0,34,0.00,,,0.00,Wunderground v.1.15,2014-01-03 19:58:00,
2014-01-03 14:59:00,31.8,7.2,30.37,SE,127,1.0,6.0,35,0.00,,,0.00,Wunderground v.1.15,2014-01-03 19:59:00,
2014-01-03 15:00:00,31.8,6.6,30.37,East,86,1.0,2.0,34,0.00,,,0.00,Wunderground v.1.15,2014-01-03 20:00:00,
2014-01-03 15:03:00,31.7,5.8,30.37,ENE,76,1.0,4.0,33,0.00,,,0.00,Wunderground v.1.15,2014-01-03 20:03:00,
2014-01-03 15:04:00,31.7,6.5,30.37,NE,47,3.0,4.0,34,0.00,,,0.00,Wunderground v.1.15,2014-01-03 20:04:00,
2014-01-03 15:05:00,31.7,6.5,30.37,ENE,69,4.0,4.0,34,0.00,,,0.00,Wunderground v.1.15,2014-01-03 20:05:00,
2014-01-03 15:08:00,31.5,6.3,30.37,WNW,289,2.0,8.0,34,0.00,,,0.00,Wunderground v.1.15,2014-01-03 20:08:00,
2014-01-03 15:10:00,31.5,6.9,30.37,WNW,293,2.0,3.0,35,0.00,,,0.00,Wunderground v.1.15,2014-01-03 20:10:00,
2014-01-03 15:11:00,31.6,7.0,30.37,West,278,2.0,3.0,35,0.00,,,0.00,Wunderground v.1.15,2014-01-03 20:11:00,
2014-01-03 15:13:00,31.8,7.2,30.37,WSW,256,1.0,4.0,35,0.00,,,0.00,Wunderground v.1.15,2014-01-03 20:13:00,
2014-01-03 15:15:00,31.9,7.9,30.37,WNW,298,1.0,4.0,36,0.00,,,0.00,Wunderground v.1.15,2014-01-03 20:15:00,
2014-01-03 15:16:00,31.9,7.9,30.37,WNW,293,3.0,4.0,36,0.00,,,0.00,Wunderground v.1.15,2014-01-03 20:16:00,
2014-01-03 15:18:00,32.1,7.5,30.37,NNW,332,1.0,4.0,35,0.00,,,0.00,Wunderground v.1.15,2014-01-03 20:18:00,
2014-01-03 15:19:00,32.1,7.5,30.37,WNW,288,1.0,7.0,35,0.00,,,0.00,Wunderground v.1.15,2014-01-03 20:19:00,
2014-01-03 15:20:00,32.1,8.1,30.37,WNW,295,1.0,2.0,36,0.00,,,0.00,Wunderground v.1.15,2014-01-03 20:20:00,
2014-01-03 15:21:00,32.1,7.5,30.37,ENE,61,5.0,5.0,35,0.00,,,0.00,Wunderground v.1.15,2014-01-03 20:21:00,
2014-01-03 15:22:00,32.1,6.8,30.37,NE,46,1.0,6.0,34,0.00,,,0.00,Wunderground v.1.15,2014-01-03 20:22:00,
2014-01-03 15:23:00,31.9,6.0,30.37,North,356,2.0,7.0,33,0.00,,,0.00,Wunderground v.1.15,2014-01-03 20:23:00,
2014-01-03 15:25:00,31.9,6.7,30.37,SW,236,4.0,7.0,34,0.00,,,0.00,Wunderground v.1.15,2014-01-03 20:25:00,
2014-01-03 15:27:00,31.8,6.6,30.38,WNW,285,3.0,7.0,34,0.00,,,0.00,Wunderground v.1.15,2014-01-03 20:27:00,
2014-01-03 15:28:00,31.8,7.2,30.37,WNW,292,2.0,7.0,35,0.00,,,0.00,Wunderground v.1.15,2014-01-03 20:28:00,
2014-01-03 15:30:00,31.9,7.3,30.37,WNW,285,3.0,5.0,35,0.00,,,0.00,Wunderground v.1.15,2014-01-03 20:30:00,
2014-01-03 15:31:00,32.0,7.4,30.38,North,351,3.0,5.0,35,0.00,,,0.00,Wunderground v.1.15,2014-01-03 20:31:00,
2014-01-03 15:32:00,32.0,7.4,30.38,WNW,300,2.0,5.0,35,0.00,,,0.00,Wunderground v.1.15,2014-01-03 20:32:00,
2014-01-03 15:33:00,32.1,7.5,30.38,West,281,1.0,5.0,35,0.00,,,0.00,Wunderground v.1.15,2014-01-03 20:33:00,
2014-01-03 15:35:00,32.2,6.9,30.38,West,275,1.0,5.0,34,0.00,,,0.00,Wunderground v.1.15,2014-01-03 20:35:00,
2014-01-03 15:36:00,32.2,6.9,30.38,West,276,0.0,5.0,34,0.00,,,0.00,Wunderground v.1.15,2014-01-03 20:36:00,
2014-01-03 15:37:00,32.2,8.2,30.38,NNW,335,0.0,5.0,36,0.00,,,0.00,Wunderground v.1.15,2014-01-03 20:37:00,
2014-01-03 15:39:00,32.3,7.7,30.38,West,267,1.0,5.0,35,0.00,,,0.00,Wunderground v.1.15,2014-01-03 20:39:00,
2014-01-03 15:40:00,32.2,6.9,30.38,NE,54,2.0,4.0,34,0.00,,,0.00,Wunderground v.1.15,2014-01-03 20:40:00,
2014-01-03 15:41:00,32.3,7.0,30.38,ENE,65,2.0,8.0,34,0.00,,,0.00,Wunderground v.1.15,2014-01-03 20:41:00,
2014-01-03 15:42:00,32.2,5.6,30.38,North,352,1.0,8.0,32,0.00,,,0.00,Wunderground v.1.15,2014-01-03 20:42:00,
2014-01-03 15:43:00,32.2,5.6,30.38,NNW,343,1.0,8.0,32,0.00,,,0.00,Wunderground v.1.15,2014-01-03 20:43:00,
2014-01-03 15:44:00,32.2,6.9,30.38,North,4,2.0,8.0,34,0.00,,,0.00,Wunderground v.1.15,2014-01-03 20:44:00,
2014-01-03 15:46:00,32.2,6.3,30.38,WNW,295,0.0,8.0,33,0.00,,,0.00,Wunderground v.1.15,2014-01-03 20:46:00,
2014-01-03 15:47:00,32.2,6.3,30.38,NNE,27,1.0,8.0,33,0.00,,,0.00,Wunderground v.1.15,2014-01-03 20:47:00,
2014-01-03 15:48:00,32.1,6.2,30.38,WNW,282,3.0,8.0,33,0.00,,,0.00,Wunderground v.1.15,2014-01-03 20:48:00,
2014-01-03 15:49:00,32.1,5.5,30.38,SE,140,1.0,8.0,32,0.00,,,0.00,Wunderground v.1.15,2014-01-03 20:49:00,
2014-01-03 15:51:00,32.1,6.8,30.38,WSW,246,5.0,5.0,34,0.00,,,0.00,Wunderground v.1.15,2014-01-03 20:51:00,
2014-01-03 15:52:00,32.1,6.2,30.38,WNW,287,2.0,8.0,33,0.00,,,0.00,Wunderground v.1.15,2014-01-03 20:52:00,
2014-01-03 15:53:00,32.1,6.2,30.38,WNW,290,3.0,8.0,33,0.00,,,0.00,Wunderground v.1.15,2014-01-03 20:53:00,
2014-01-03 15:54:00,32.1,6.2,30.38,West,281,2.0,8.0,33,0.00,,,0.00,Wunderground v.1.15,2014-01-03 20:54:00,
2014-01-03 15:56:00,32.1,6.8,30.38,NE,53,1.0,8.0,34,0.00,,,0.00,Wunderground v.1.15,2014-01-03 20:56:00,
2014-01-03 15:57:00,32.1,6.8,30.38,NE,52,0.0,8.0,34,0.00,,,0.00,Wunderground v.1.15,2014-01-03 20:57:00,
2014-01-03 15:58:00,32.1,7.5,30.38,NNE,33,2.0,8.0,35,0.00,,,0.00,Wunderground v.1.15,2014-01-03 20:58:00,
2014-01-03 15:59:00,32.1,6.2,30.38,ENE,72,1.0,8.0,33,0.00,,,0.00,Wunderground v.1.15,2014-01-03 20:59:00,
2014-01-03 16:01:00,32.1,6.8,30.38,NE,38,2.0,3.0,34,0.00,,,0.00,Wunderground v.1.15,2014-01-03 21:01:00,
2014-01-03 16:02:00,32.1,6.2,30.38,NW,321,3.0,3.0,33,0.00,,,0.00,Wunderground v.1.15,2014-01-03 21:02:00,
2014-01-03 16:03:00,32.0,6.8,30.38,North,349,0.0,4.0,34,0.00,,,0.00,Wunderground v.1.15,2014-01-03 21:03:00,
2014-01-03 16:04:00,32.1,6.8,30.38,ENE,65,1.0,4.0,34,0.00,,,0.00,Wunderground v.1.15,2014-01-03 21:04:00,
2014-01-03 16:05:00,32.0,6.8,30.38,WNW,295,2.0,4.0,34,0.00,,,0.00,Wunderground v.1.15,2014-01-03 21:05:00,
2014-01-03 16:06:00,32.0,6.8,30.38,SE,139,1.0,4.0,34,0.00,,,0.00,Wunderground v.1.15,2014-01-03 21:06:00,
2014-01-03 16:07:00,32.0,6.8,30.39,SE,136,2.0,4.0,34,0.00,,,0.00,Wunderground v.1.15,2014-01-03 21:07:00,
2014-01-03 16:09:00,32.0,6.8,30.39,West,281,0.0,4.0,34,0.00,,,0.00,Wunderground v.1.15,2014-01-03 21:09:00,
2014-01-03 16:10:00,32.0,6.8,30.39,West,274,0.0,1.0,34,0.00,,,0.00,Wunderground v.1.15,2014-01-03 21:10:00,
2014-01-03 16:12:00,32.0,6.8,30.39,East,97,2.0,4.0,34,0.00,,,0.00,Wunderground v.1.15,2014-01-03 21:12:00,
2014-01-03 16:14:00,31.9,6.0,30.39,WSW,248,3.0,6.0,33,0.00,,,0.00,Wunderground v.1.15,2014-01-03 21:14:00,
2014-01-03 16:15:00,31.9,6.0,30.39,WNW,295,4.0,6.0,33,0.00,,,0.00,Wunderground v.1.15,2014-01-03 21:15:00,
2014-01-03 16:17:00,31.8,5.2,30.39,North,355,1.0,6.0,32,0.00,,,0.00,Wunderground v.1.15,2014-01-03 21:17:00,
2014-01-03 16:18:00,31.8,5.2,30.39,NW,314,4.0,6.0,32,0.00,,,0.00,Wunderground v.1.15,2014-01-03 21:18:00,
2014-01-03 16:20:00,31.8,5.2,30.39,WNW,290,3.0,3.0,32,0.00,,,0.00,Wunderground v.1.15,2014-01-03 21:20:00,
2014-01-03 16:23:00,31.7,5.2,30.39,West,278,2.0,5.0,32,0.00,,,0.00,Wunderground v.1.15,2014-01-03 21:23:00,
2014-01-03 16:25:00,31.7,6.5,30.39,ENE,72,2.0,5.0,34,0.00,,,0.00,Wunderground v.1.15,2014-01-03 21:25:00,
2014-01-03 16:27:00,31.6,6.4,30.40,East,82,2.0,5.0,34,0.00,,,0.00,Wunderground v.1.15,2014-01-03 21:27:00,
2014-01-03 16:28:00,31.6,5.7,30.40,ESE,110,1.0,5.0,33,0.00,,,0.00,Wunderground v.1.15,2014-01-03 21:28:00,
2014-01-03 16:30:00,31.6,5.7,30.40,East,86,1.0,2.0,33,0.00,,,0.00,Wunderground v.1.15,2014-01-03 21:30:00,
2014-01-03 16:32:00,31.6,6.4,30.40,ENE,74,3.0,3.0,34,0.00,,,0.00,Wunderground v.1.15,2014-01-03 21:32:00,
2014-01-03 16:33:00,31.5,6.3,30.40,NE,35,3.0,3.0,34,0.00,,,0.00,Wunderground v.1.15,2014-01-03 21:33:00,
2014-01-03 16:34:00,31.5,6.3,30.40,East,97,0.0,3.0,34,0.00,,,0.00,Wunderground v.1.15,2014-01-03 21:34:00,
2014-01-03 16:36:00,31.5,6.3,30.40,NW,325,2.0,4.0,34,0.00,,,0.00,Wunderground v.1.15,2014-01-03 21:36:00,
2014-01-03 16:38:00,31.5,6.3,30.40,WSW,255,0.0,4.0,34,0.00,,,0.00,Wunderground v.1.15,2014-01-03 21:38:00,
2014-01-03 16:39:00,31.5,6.3,30.40,WSW,255,0.0,4.0,34,0.00,,,0.00,Wunderground v.1.15,2014-01-03 21:39:00,
2014-01-03 16:41:00,31.5,6.9,30.40,NNW,345,1.0,1.0,35,0.00,,,0.00,Wunderground v.1.15,2014-01-03 21:41:00,
2014-01-03 16:43:00,31.4,6.2,30.40,NNW,328,0.0,3.0,34,0.00,,,0.00,Wunderground v.1.15,2014-01-03 21:43:00,
2014-01-03 16:44:00,31.4,6.2,30.40,NW,310,1.0,3.0,34,0.00,,,0.00,Wunderground v.1.15,2014-01-03 21:44:00,
2014-01-03 16:46:00,31.3,6.8,30.40,NE,44,1.0,3.0,35,0.00,,,0.00,Wunderground v.1.15,2014-01-03 21:46:00,
2014-01-03 16:48:00,31.2,6.0,30.40,NW,308,2.0,3.0,34,0.00,,,0.00,Wunderground v.1.15,2014-01-03 21:48:00,
2014-01-03 16:49:00,31.2,6.0,30.40,NW,308,1.0,3.0,34,0.00,,,0.00,Wunderground v.1.15,2014-01-03 21:49:00,
2014-01-03 16:50:00,31.2,5.4,30.40,NE,38,0.0,1.0,33,0.00,,,0.00,Wunderground v.1.15,2014-01-03 21:50:00,
2014-01-03 16:52:00,31.2,6.0,30.40,NW,304,3.0,3.0,34,0.00,,,0.00,Wunderground v.1.15,2014-01-03 21:52:00,
2014-01-03 16:53:00,31.2,7.3,30.40,NE,53,1.0,4.0,36,0.00,,,0.00,Wunderground v.1.15,2014-01-03 21:53:00,
2014-01-03 16:54:00,31.1,7.2,30.40,NE,52,1.0,4.0,36,0.00,,,0.00,Wunderground v.1.15,2014-01-03 21:54:00,
2014-01-03 16:55:00,31.1,6.0,30.40,NE,35,3.0,4.0,34,0.00,,,0.00,Wunderground v.1.15,2014-01-03 21:55:00,
2014-01-03 16:57:00,31.0,5.2,30.40,East,94,0.0,4.0,33,0.00,,,0.00,Wunderground v.1.15,2014-01-03 21:57:00,
2014-01-03 16:59:00,30.9,5.1,30.40,SW,225,1.0,5.0,33,0.00,,,0.00,Wunderground v.1.15,2014-01-03 21:59:00,
2014-01-03 17:00:00,30.9,5.8,30.40,ENE,62,2.0,2.0,34,0.00,,,0.00,Wunderground v.1.15,2014-01-03 22:00:00,
2014-01-03 17:01:00,30.8,6.9,30.40,NE,53,1.0,2.0,36,0.00,,,0.00,Wunderground v.1.15,2014-01-03 22:01:00,
2014-01-03 17:02:00,30.7,6.9,30.40,ENE,58,1.0,2.0,36,0.00,,,0.00,Wunderground v.1.15,2014-01-03 22:02:00,
2014-01-03 17:04:00,30.7,5.6,30.40,North,359,0.0,2.0,34,0.00,,,0.00,Wunderground v.1.15,2014-01-03 22:04:00,
2014-01-03 17:05:00,30.6,6.1,30.40,North,359,0.0,2.0,35,0.00,,,0.00,Wunderground v.1.15,2014-01-03 22:05:00,
2014-01-03 17:06:00,30.5,6.1,30.40,North,357,0.0,2.0,35,0.00,,,0.00,Wunderground v.1.15,2014-01-03 22:06:00,
2014-01-03 17:07:00,30.4,6.6,30.40,NE,56,0.0,2.0,36,0.00,,,0.00,Wunderground v.1.15,2014-01-03 22:07:00,
2014-01-03 17:09:00,30.3,6.5,30.41,ENE,57,0.0,2.0,36,0.00,,,0.00,Wunderground v.1.15,2014-01-03 22:09:00,
2014-01-03 17:10:00,30.3,5.9,30.41,WNW,293,1.0,1.0,35,0.00,,,0.00,Wunderground v.1.15,2014-01-03 22:10:00,
2014-01-03 17:11:00,30.2,5.8,30.41,North,8,1.0,1.0,35,0.00,,,0.00,Wunderground v.1.15,2014-01-03 22:11:00,
2014-01-03 17:12:00,30.2,5.8,30.41,North,9,0.0,1.0,35,0.00,,,0.00,Wunderground v.1.15,2014-01-03 22:12:00,
2014-01-03 17:15:00,30.0,5.6,30.41,NW,326,0.0,2.0,35,0.00,,,0.00,Wunderground v.1.15,2014-01-03 22:15:00,
2014-01-03 17:17:00,29.9,6.7,30.40,NNW,333,0.0,2.0,37,0.00,,,0.00,Wunderground v.1.15,2014-01-03 22:17:00,
2014-01-03 17:18:00,29.8,7.2,30.41,NNW,333,0.0,2.0,38,0.00,,,0.00,Wunderground v.1.15,2014-01-03 22:18:00,
2014-01-03 17:20:00,29.7,6.0,30.40,NNW,333,0.0,0.0,36,0.00,,,0.00,Wunderground v.1.15,2014-01-03 22:20:00,
2014-01-03 17:21:00,29.7,6.6,30.40,NNW,333,0.0,0.0,37,0.00,,,0.00,Wunderground v.1.15,2014-01-03 22:21:00,
2014-01-03 17:22:00,29.6,5.9,30.40,NNW,333,0.0,1.0,36,0.00,,,0.00,Wunderground v.1.15,2014-01-03 22:22:00,
2014-01-03 17:23:00,29.5,7.0,30.40,NNW,333,0.0,1.0,38,0.00,,,0.00,Wunderground v.1.15,2014-01-03 22:23:00,
2014-01-03 17:24:00,29.5,8.7,30.40,NNW,333,0.0,1.0,41,0.00,,,0.00,Wunderground v.1.15,2014-01-03 22:24:00,
2014-01-03 17:25:00,29.4,8.6,30.40,NNW,333,0.0,1.0,41,0.00,,,0.00,Wunderground v.1.15,2014-01-03 22:25:00,
2014-01-03 17:26:00,29.4,8.0,30.40,NNW,333,0.0,1.0,40,0.00,,,0.00,Wunderground v.1.15,2014-01-03 22:26:00,
2014-01-03 17:27:00,29.2,7.8,30.41,NNW,333,1.0,1.0,40,0.00,,,0.00,Wunderground v.1.15,2014-01-03 22:27:00,
2014-01-03 17:28:00,29.1,6.6,30.41,NNW,333,0.0,1.0,38,0.00,,,0.00,Wunderground v.1.15,2014-01-03 22:28:00,
2014-01-03 17:29:00,29.0,6.5,30.41,NNW,333,0.0,1.0,38,0.00,,,0.00,Wunderground v.1.15,2014-01-03 22:29:00,
2014-01-03 17:30:00,28.9,6.4,30.41,NW,325,0.0,1.0,38,0.00,,,0.00,Wunderground v.1.15,2014-01-03 22:30:00,
2014-01-03 17:31:00,28.9,5.8,30.41,NW,323,1.0,1.0,37,0.00,,,0.00,Wunderground v.1.15,2014-01-03 22:31:00,
2014-01-03 17:32:00,28.8,5.8,30.41,NW,323,0.0,1.0,37,0.00,,,0.00,Wunderground v.1.15,2014-01-03 22:32:00,
2014-01-03 17:34:00,28.8,5.8,30.41,NW,323,0.0,1.0,37,0.00,,,0.00,Wunderground v.1.15,2014-01-03 22:34:00,
2014-01-03 17:35:00,28.7,6.3,30.41,NW,323,0.0,1.0,38,0.00,,,0.00,Wunderground v.1.15,2014-01-03 22:35:00,
2014-01-03 17:36:00,28.7,6.3,30.41,NW,323,0.0,1.0,38,0.00,,,0.00,Wunderground v.1.15,2014-01-03 22:36:00,
2014-01-03 17:37:00,28.5,6.1,30.41,NW,323,0.0,1.0,38,0.00,,,0.00,Wunderground v.1.15,2014-01-03 22:37:00,
2014-01-03 17:40:00,28.4,6.0,30.41,NW,323,0.0,0.0,38,0.00,,,0.00,Wunderground v.1.15,2014-01-03 22:40:00,
2014-01-03 17:42:00,28.2,5.8,30.41,NW,323,0.0,0.0,38,0.00,,,0.00,Wunderground v.1.15,2014-01-03 22:42:00,
2014-01-03 17:45:00,28.0,6.8,30.41,ESE,106,0.0,0.0,40,0.00,,,0.00,Wunderground v.1.15,2014-01-03 22:45:00,
2014-01-03 17:46:00,28.0,6.8,30.41,ESE,105,0.0,0.0,40,0.00,,,0.00,Wunderground v.1.15,2014-01-03 22:46:00,
2014-01-03 17:47:00,27.9,7.2,30.41,ESE,105,0.0,1.0,41,0.00,,,0.00,Wunderground v.1.15,2014-01-03 22:47:00,
2014-01-03 17:48:00,27.9,7.2,30.41,ESE,106,0.0,1.0,41,0.00,,,0.00,Wunderground v.1.15,2014-01-03 22:48:00,
2014-01-03 17:50:00,27.8,6.6,30.41,ESE,106,1.0,1.0,40,0.00,,,0.00,Wunderground v.1.15,2014-01-03 22:50:00,
2014-01-03 17:51:00,27.7,5.9,30.41,ESE,106,0.0,1.0,39,0.00,,,0.00,Wunderground v.1.15,2014-01-03 22:51:00,
2014-01-03 17:52:00,27.7,5.9,30.41,ESE,105,0.0,1.0,39,0.00,,,0.00,Wunderground v.1.15,2014-01-03 22:52:00,
2014-01-03 17:53:00,27.7,6.5,30.41,ESE,105,0.0,1.0,40,0.00,,,0.00,Wunderground v.1.15,2014-01-03 22:53:00,
2014-01-03 17:55:00,27.6,6.9,30.42,ESE,105,0.0,1.0,41,0.00,,,0.00,Wunderground v.1.15,2014-01-03 22:55:00,
2014-01-03 17:56:00,27.6,6.4,30.42,ESE,106,0.0,1.0,40,0.00,,,0.00,Wunderground v.1.15,2014-01-03 22:56:00,
2014-01-03 17:57:00,27.5,6.3,30.42,ESE,106,1.0,1.0,40,0.00,,,0.00,Wunderground v.1.15,2014-01-03 22:57:00,
2014-01-03 17:59:00,27.5,6.3,30.42,ESE,106,0.0,1.0,40,0.00,,,0.00,Wunderground v.1.15,2014-01-03 22:59:00,
2014-01-03 18:01:00,27.5,6.3,30.42,ESE,106,0.0,0.0,40,0.00,,,0.00,Wunderground v.1.15,2014-01-03 23:01:00,
2014-01-03 18:02:00,27.5,6.8,30.42,ESE,105,0.0,0.0,41,0.00,,,0.00,Wunderground v.1.15,2014-01-03 23:02:00,
2014-01-03 18:03:00,27.5,6.8,30.42,ESE,105,0.0,0.0,41,0.00,,,0.00,Wunderground v.1.15,2014-01-03 23:03:00,
2014-01-03 18:05:00,27.3,7.2,30.42,ESE,105,0.0,0.0,42,0.00,,,0.00,Wunderground v.1.15,2014-01-03 23:05:00,
2014-01-03 18:06:00,27.2,6.6,30.42,ESE,106,0.0,0.0,41,0.00,,,0.00,Wunderground v.1.15,2014-01-03 23:06:00,
2014-01-03 18:07:00,27.1,6.5,30.42,ESE,105,0.0,0.0,41,0.00,,,0.00,Wunderground v.1.15,2014-01-03 23:07:00,
2014-01-03 18:08:00,27.0,6.4,30.42,ESE,106,0.0,0.0,41,0.00,,,0.00,Wunderground v.1.15,2014-01-03 23:08:00,
2014-01-03 18:10:00,26.8,6.2,30.42,ESE,106,0.0,1.0,41,0.00,,,0.00,Wunderground v.1.15,2014-01-03 23:10:00,
2014-01-03 18:11:00,26.8,6.2,30.42,ESE,105,0.0,1.0,41,0.00,,,0.00,Wunderground v.1.15,2014-01-03 23:11:00,
2014-01-03 18:13:00,26.8,7.3,30.42,ESE,106,0.0,1.0,43,0.00,,,0.00,Wunderground v.1.15,2014-01-03 23:13:00,
2014-01-03 18:14:00,26.7,6.6,30.42,ESE,105,0.0,1.0,42,0.00,,,0.00,Wunderground v.1.15,2014-01-03 23:14:00,
2014-01-03 18:15:00,26.6,7.1,30.42,ESE,106,0.0,1.0,43,0.00,,,0.00,Wunderground v.1.15,2014-01-03 23:15:00,
2014-01-03 18:16:00,26.6,7.1,30.42,ESE,105,0.0,1.0,43,0.00,,,0.00,Wunderground v.1.15,2014-01-03 23:16:00,
2014-01-03 18:17:00,26.6,7.1,30.42,ESE,105,0.0,1.0,43,0.00,,,0.00,Wunderground v.1.15,2014-01-03 23:17:00,
2014-01-03 18:18:00,26.6,6.6,30.43,ESE,105,0.0,1.0,42,0.00,,,0.00,Wunderground v.1.15,2014-01-03 23:18:00,
2014-01-03 18:20:00,26.6,6.6,30.43,ESE,105,0.0,0.0,42,0.00,,,0.00,Wunderground v.1.15,2014-01-03 23:20:00,
2014-01-03 18:21:00,26.6,6.6,30.43,ESE,106,0.0,0.0,42,0.00,,,0.00,Wunderground v.1.15,2014-01-03 23:21:00,
2014-01-03 18:22:00,26.6,6.0,30.43,ESE,106,0.0,0.0,41,0.00,,,0.00,Wunderground v.1.15,2014-01-03 23:22:00,
2014-01-03 18:23:00,26.5,7.0,30.43,ESE,105,0.0,0.0,43,0.00,,,0.00,Wunderground v.1.15,2014-01-03 23:23:00,
2014-01-03 18:25:00,26.5,7.0,30.43,ESE,106,0.0,0.0,43,0.00,,,0.00,Wunderground v.1.15,2014-01-03 23:25:00,
2014-01-03 18:26:00,26.5,7.0,30.43,ESE,105,0.0,0.0,43,0.00,,,0.00,Wunderground v.1.15,2014-01-03 23:26:00,
2014-01-03 18:27:00,26.4,6.9,30.43,ESE,105,0.0,0.0,43,0.00,,,0.00,Wunderground v.1.15,2014-01-03 23:27:00,
2014-01-03 18:28:00,26.4,6.4,30.43,ESE,105,0.0,0.0,42,0.00,,,0.00,Wunderground v.1.15,2014-01-03 23:28:00,
2014-01-03 18:30:00,26.4,5.8,30.43,ESE,106,0.0,0.0,41,0.00,,,0.00,Wunderground v.1.15,2014-01-03 23:30:00,
2014-01-03 18:31:00,26.4,6.4,30.43,ESE,105,0.0,0.0,42,0.00,,,0.00,Wunderground v.1.15,2014-01-03 23:31:00,
2014-01-03 18:32:00,26.4,6.4,30.43,ESE,106,0.0,0.0,42,0.00,,,0.00,Wunderground v.1.15,2014-01-03 23:32:00,
2014-01-03 18:34:00,26.3,6.8,30.43,ESE,106,0.0,0.0,43,0.00,,,0.00,Wunderground v.1.15,2014-01-03 23:34:00,
2014-01-03 18:36:00,26.2,7.2,30.43,ESE,106,0.0,0.0,44,0.00,,,0.00,Wunderground v.1.15,2014-01-03 23:36:00,
2014-01-03 18:37:00,26.1,7.1,30.44,ESE,105,0.0,0.0,44,0.00,,,0.00,Wunderground v.1.15,2014-01-03 23:37:00,
2014-01-03 18:39:00,26.1,6.1,30.43,ESE,105,0.0,0.0,42,0.00,,,0.00,Wunderground v.1.15,2014-01-03 23:39:00,
2014-01-03 18:41:00,26.1,6.6,30.43,ESE,106,0.0,0.0,43,0.00,,,0.00,Wunderground v.1.15,2014-01-03 23:41:00,
2014-01-03 18:42:00,26.1,6.6,30.43,ESE,105,0.0,0.0,43,0.00,,,0.00,Wunderground v.1.15,2014-01-03 23:42:00,
2014-01-03 18:43:00,26.0,7.0,30.43,ESE,105,0.0,0.0,44,0.00,,,0.00,Wunderground v.1.15,2014-01-03 23:43:00,
2014-01-03 18:44:00,26.0,7.5,30.44,ESE,105,0.0,0.0,45,0.00,,,0.00,Wunderground v.1.15,2014-01-03 23:44:00,
2014-01-03 18:46:00,26.0,7.0,30.44,ESE,105,0.0,0.0,44,0.00,,,0.00,Wunderground v.1.15,2014-01-03 23:46:00,
2014-01-03 18:47:00,26.1,6.6,30.44,ESE,105,0.0,0.0,43,0.00,,,0.00,Wunderground v.1.15,2014-01-03 23:47:00,
2014-01-03 18:48:00,26.1,6.6,30.44,ESE,106,0.0,0.0,43,0.00,,,0.00,Wunderground v.1.15,2014-01-03 23:48:00,
2014-01-03 18:50:00,26.1,6.1,30.44,ESE,105,0.0,0.0,42,0.00,,,0.00,Wunderground v.1.15,2014-01-03 23:50:00,
2014-01-03 18:51:00,26.1,6.6,30.44,ESE,105,0.0,0.0,43,0.00,,,0.00,Wunderground v.1.15,2014-01-03 23:51:00,
2014-01-03 18:53:00,26.1,6.6,30.44,ESE,105,0.0,0.0,43,0.00,,,0.00,Wunderground v.1.15,2014-01-03 23:53:00,
2014-01-03 18:54:00,26.1,6.6,30.44,ESE,105,0.0,0.0,43,0.00,,,0.00,Wunderground v.1.15,2014-01-03 23:54:00,
2014-01-03 18:55:00,26.1,7.6,30.44,ESE,105,0.0,0.0,45,0.00,,,0.00,Wunderground v.1.15,2014-01-03 23:55:00,
2014-01-03 18:58:00,26.0,9.0,30.44,ESE,106,0.0,0.0,48,0.00,,,0.00,Wunderground v.1.15,2014-01-03 23:58:00,
2014-01-03 18:59:00,25.9,8.4,30.44,ESE,105,0.0,0.0,47,0.00,,,0.00,Wunderground v.1.15,2014-01-03 23:59:00,
2014-01-03 19:01:00,25.8,8.3,30.44,ESE,105,0.0,0.0,47,0.00,,,0.00,Wunderground v.1.15,2014-01-04 00:01:00,
2014-01-03 19:03:00,25.7,7.7,30.44,ESE,105,0.0,0.0,46,0.00,,,0.00,Wunderground v.1.15,2014-01-04 00:03:00,
2014-01-03 19:04:00,25.6,7.7,30.44,ESE,105,0.0,0.0,46,0.00,,,0.00,Wunderground v.1.15,2014-01-04 00:04:00,
2014-01-03 19:05:00,25.6,7.7,30.44,ESE,106,0.0,0.0,46,0.00,,,0.00,Wunderground v.1.15,2014-01-04 00:05:00,
2014-01-03 19:06:00,25.6,7.7,30.44,ESE,120,1.0,1.0,46,0.00,,,0.00,Wunderground v.1.15,2014-01-04 00:06:00,
2014-01-03 19:08:00,25.7,7.3,30.44,ESE,120,0.0,1.0,45,0.00,,,0.00,Wunderground v.1.15,2014-01-04 00:08:00,
2014-01-03 19:09:00,25.7,7.3,30.44,ESE,120,0.0,1.0,45,0.00,,,0.00,Wunderground v.1.15,2014-01-04 00:09:00,
2014-01-03 19:10:00,25.7,7.3,30.44,ESE,122,0.0,0.0,45,0.00,,,0.00,Wunderground v.1.15,2014-01-04 00:10:00,
2014-01-03 19:11:00,25.8,7.4,30.44,ESE,120,0.0,1.0,45,0.00,,,0.00,Wunderground v.1.15,2014-01-04 00:11:00,
2014-01-03 19:13:00,25.9,7.4,30.44,ESE,120,1.0,1.0,45,0.00,,,0.00,Wunderground v.1.15,2014-01-04 00:13:00,
2014-01-03 19:14:00,25.9,7.4,30.44,ESE,120,0.0,1.0,45,0.00,,,0.00,Wunderground v.1.15,2014-01-04 00:14:00,
2014-01-03 19:15:00,25.9,8.4,30.44,ESE,120,1.0,1.0,47,0.00,,,0.00,Wunderground v.1.15,2014-01-04 00:15:00,
2014-01-03 19:16:00,25.9,7.9,30.45,ESE,120,0.0,1.0,46,0.00,,,0.00,Wunderground v.1.15,2014-01-04 00:16:00,
2014-01-03 19:18:00,25.9,7.9,30.45,ESE,120,1.0,1.0,46,0.00,,,0.00,Wunderground v.1.15,2014-01-04 00:18:00,
2014-01-03 19:19:00,25.9,7.9,30.45,ESE,120,0.0,1.0,46,0.00,,,0.00,Wunderground v.1.15,2014-01-04 00:19:00,
2014-01-03 19:20:00,25.9,7.9,30.45,ESE,120,0.0,0.0,46,0.00,,,0.00,Wunderground v.1.15,2014-01-04 00:20:00,
2014-01-03 19:21:00,25.9,7.9,30.44,ESE,113,0.0,0.0,46,0.00,,,0.00,Wunderground v.1.15,2014-01-04 00:21:00,
2014-01-03 19:23:00,26.0,8.5,30.44,ESE,115,0.0,0.0,47,0.00,,,0.00,Wunderground v.1.15,2014-01-04 00:23:00,
2014-01-03 19:24:00,26.0,8.5,30.44,ESE,116,0.0,0.0,47,0.00,,,0.00,Wunderground v.1.15,2014-01-04 00:24:00,
2014-01-03 19:25:00,26.0,8.5,30.45,ESE,115,0.0,0.0,47,0.00,,,0.00,Wunderground v.1.15,2014-01-04 00:25:00,
2014-01-03 19:26:00,25.9,7.9,30.44,ESE,115,0.0,0.0,46,0.00,,,0.00,Wunderground v.1.15,2014-01-04 00:26:00,
2014-01-03 19:29:00,25.9,7.4,30.44,ESE,116,0.0,0.0,45,0.00,,,0.00,Wunderground v.1.15,2014-01-04 00:29:00,
2014-01-03 19:30:00,25.9,8.4,30.45,ESE,115,0.0,0.0,47,0.00,,,0.00,Wunderground v.1.15,2014-01-04 00:30:00,
2014-01-03 19:31:00,25.9,7.9,30.45,ESE,116,0.0,0.0,46,0.00,,,0.00,Wunderground v.1.15,2014-01-04 00:31:00,
2014-01-03 19:34:00,25.9,7.9,30.45,SE,136,0.0,0.0,46,0.00,,,0.00,Wunderground v.1.15,2014-01-04 00:34:00,
2014-01-03 19:35:00,25.9,7.9,30.45,SE,136,0.0,0.0,46,0.00,,,0.00,Wunderground v.1.15,2014-01-04 00:35:00,
2014-01-03 19:36:00,25.9,7.9,30.45,SE,137,0.0,0.0,46,0.00,,,0.00,Wunderground v.1.15,2014-01-04 00:36:00,
2014-01-03 19:44:00,25.5,8.5,30.45,SE,137,0.0,0.0,48,0.00,,,0.00,Wunderground v.1.15,2014-01-04 00:44:00,
2014-01-03 19:45:00,25.5,8.5,30.45,SE,136,0.0,0.0,48,0.00,,,0.00,Wunderground v.1.15,2014-01-04 00:45:00,
2014-01-03 19:46:00,25.5,8.5,30.45,SE,137,0.0,0.0,48,0.00,,,0.00,Wunderground v.1.15,2014-01-04 00:46:00,
2014-01-03 19:49:00,25.3,8.8,30.45,SE,137,0.0,0.0,49,0.00,,,0.00,Wunderground v.1.15,2014-01-04 00:49:00,
2014-01-03 19:50:00,25.3,8.8,30.45,SE,136,0.0,0.0,49,0.00,,,0.00,Wunderground v.1.15,2014-01-04 00:50:00,
2014-01-03 19:51:00,25.2,8.2,30.45,SE,136,0.0,0.0,48,0.00,,,0.00,Wunderground v.1.15,2014-01-04 00:51:00,
2014-01-03 19:54:00,25.1,8.6,30.45,SE,136,0.0,0.0,49,0.00,,,0.00,Wunderground v.1.15,2014-01-04 00:54:00,
2014-01-03 19:55:00,25.1,8.6,30.45,SE,137,0.0,0.0,49,0.00,,,0.00,Wunderground v.1.15,2014-01-04 00:55:00,
2014-01-03 19:56:00,25.0,9.0,30.45,SE,137,0.0,0.0,50,0.00,,,0.00,Wunderground v.1.15,2014-01-04 00:56:00,
2014-01-03 20:00:00,24.8,8.3,30.45,SE,136,0.0,0.0,49,0.00,,,0.00,Wunderground v.1.15,2014-01-04 01:00:00,
2014-01-03 20:01:00,24.7,8.2,30.46,SE,136,0.0,0.0,49,0.00,,,0.00,Wunderground v.1.15,2014-01-04 01:01:00,
2014-01-03 20:05:00,24.7,9.5,30.45,SE,137,0.0,0.0,52,0.00,,,0.00,Wunderground v.1.15,2014-01-04 01:05:00,
2014-01-03 20:06:00,24.6,9.0,30.45,SE,137,0.0,0.0,51,0.00,,,0.00,Wunderground v.1.15,2014-01-04 01:06:00,
2014-01-03 20:07:00,24.5,8.9,30.45,SE,137,0.0,0.0,51,0.00,,,0.00,Wunderground v.1.15,2014-01-04 01:07:00,
2014-01-03 20:10:00,24.4,9.3,30.46,SE,137,0.0,0.0,52,0.00,,,0.00,Wunderground v.1.15,2014-01-04 01:10:00,
2014-01-03 20:11:00,24.3,9.2,30.46,SE,136,0.0,0.0,52,0.00,,,0.00,Wunderground v.1.15,2014-01-04 01:11:00,
2014-01-03 20:12:00,24.3,8.7,30.46,SE,137,0.0,0.0,51,0.00,,,0.00,Wunderground v.1.15,2014-01-04 01:12:00,
2014-01-03 20:15:00,24.1,8.1,30.46,SE,137,0.0,0.0,50,0.00,,,0.00,Wunderground v.1.15,2014-01-04 01:15:00,
2014-01-03 20:16:00,24.1,8.6,30.46,SE,136,0.0,0.0,51,0.00,,,0.00,Wunderground v.1.15,2014-01-04 01:16:00,
2014-01-03 20:17:00,24.0,8.9,30.46,SE,136,0.0,0.0,52,0.00,,,0.00,Wunderground v.1.15,2014-01-04 01:17:00,
2014-01-03 20:18:00,24.0,8.9,30.46,SE,136,0.0,0.0,52,0.00,,,0.00,Wunderground v.1.15,2014-01-04 01:18:00,
2014-01-03 20:20:00,24.0,8.0,30.46,SSE,158,0.0,0.0,50,0.00,,,0.00,Wunderground v.1.15,2014-01-04 01:20:00,
2014-01-03 20:21:00,24.0,7.6,30.46,SSE,158,0.0,0.0,49,0.00,,,0.00,Wunderground v.1.15,2014-01-04 01:21:00,
2014-01-03 20:22:00,24.0,8.0,30.46,SSE,158,0.0,0.0,50,0.00,,,0.00,Wunderground v.1.15,2014-01-04 01:22:00,
2014-01-03 20:23:00,24.0,8.9,30.45,SSE,158,0.0,0.0,52,0.00,,,0.00,Wunderground v.1.15,2014-01-04 01:23:00,
2014-01-03 20:26:00,24.0,8.5,30.46,SSE,158,0.0,0.0,51,0.00,,,0.00,Wunderground v.1.15,2014-01-04 01:26:00,
2014-01-03 20:27:00,24.0,8.9,30.46,SSE,158,0.0,0.0,52,0.00,,,0.00,Wunderground v.1.15,2014-01-04 01:27:00,
2014-01-03 20:28:00,24.0,8.9,30.46,SSE,158,0.0,0.0,52,0.00,,,0.00,Wunderground v.1.15,2014-01-04 01:28:00,
2014-01-03 20:31:00,24.0,8.9,30.46,SSE,158,0.0,0.0,52,0.00,,,0.00,Wunderground v.1.15,2014-01-04 01:31:00,
2014-01-03 20:32:00,24.0,9.3,30.46,SSE,158,0.0,0.0,53,0.00,,,0.00,Wunderground v.1.15,2014-01-04 01:32:00,
2014-01-03 20:33:00,23.9,9.2,30.46,SSE,158,0.0,0.0,53,0.00,,,0.00,Wunderground v.1.15,2014-01-04 01:33:00,
2014-01-03 20:34:00,23.9,10.1,30.47,SSE,158,0.0,0.0,55,0.00,,,0.00,Wunderground v.1.15,2014-01-04 01:34:00,
2014-01-03 20:36:00,23.9,9.2,30.47,SSE,158,0.0,0.0,53,0.00,,,0.00,Wunderground v.1.15,2014-01-04 01:36:00,
2014-01-03 20:37:00,23.9,9.6,30.47,SSE,158,0.0,0.0,54,0.00,,,0.00,Wunderground v.1.15,2014-01-04 01:37:00,
2014-01-03 20:38:00,23.8,9.6,30.47,SSE,158,0.0,0.0,54,0.00,,,0.00,Wunderground v.1.15,2014-01-04 01:38:00,
2014-01-03 20:39:00,23.8,9.6,30.47,SSE,158,0.0,0.0,54,0.00,,,0.00,Wunderground v.1.15,2014-01-04 01:39:00,
2014-01-03 20:41:00,23.7,9.9,30.47,SSE,158,0.0,0.0,55,0.00,,,0.00,Wunderground v.1.15,2014-01-04 01:41:00,
2014-01-03 20:42:00,23.7,9.5,30.47,SSE,158,0.0,0.0,54,0.00,,,0.00,Wunderground v.1.15,2014-01-04 01:42:00,
2014-01-03 20:43:00,23.6,8.9,30.47,SSE,158,0.0,0.0,53,0.00,,,0.00,Wunderground v.1.15,2014-01-04 01:43:00,
2014-01-03 20:45:00,23.6,9.4,30.47,SSE,158,0.0,0.0,54,0.00,,,0.00,Wunderground v.1.15,2014-01-04 01:45:00,
2014-01-03 20:46:00,23.5,10.1,30.47,SSE,158,0.0,0.0,56,0.00,,,0.00,Wunderground v.1.15,2014-01-04 01:46:00,
2014-01-03 20:47:00,23.5,9.7,30.47,SSE,158,0.0,0.0,55,0.00,,,0.00,Wunderground v.1.15,2014-01-04 01:47:00,
2014-01-03 20:48:00,23.5,9.7,30.47,SSE,158,0.0,0.0,55,0.00,,,0.00,Wunderground v.1.15,2014-01-04 01:48:00,
2014-01-03 20:49:00,23.4,9.6,30.47,SSE,158,0.0,0.0,55,0.00,,,0.00,Wunderground v.1.15,2014-01-04 01:49:00,
2014-01-03 20:50:00,23.4,9.6,30.47,SSE,158,0.0,0.0,55,0.00,,,0.00,Wunderground v.1.15,2014-01-04 01:50:00,
2014-01-03 20:51:00,23.3,9.1,30.47,SSE,158,0.0,0.0,54,0.00,,,0.00,Wunderground v.1.15,2014-01-04 01:51:00,
2014-01-03 20:52:00,23.3,8.7,30.47,SSE,158,0.0,0.0,53,0.00,,,0.00,Wunderground v.1.15,2014-01-04 01:52:00,
2014-01-03 20:53:00,23.3,9.1,30.47,SSE,158,0.0,0.0,54,0.00,,,0.00,Wunderground v.1.15,2014-01-04 01:53:00,
2014-01-03 20:54:00,23.2,9.0,30.47,SSE,158,0.0,0.0,54,0.00,,,0.00,Wunderground v.1.15,2014-01-04 01:54:00,
2014-01-03 20:56:00,23.2,9.0,30.47,SSE,158,0.0,0.0,54,0.00,,,0.00,Wunderground v.1.15,2014-01-04 01:56:00,
2014-01-03 20:57:00,23.1,8.9,30.47,SSE,158,0.0,0.0,54,0.00,,,0.00,Wunderground v.1.15,2014-01-04 01:57:00,
2014-01-03 20:58:00,23.0,8.4,30.47,SSE,158,0.0,0.0,53,0.00,,,0.00,Wunderground v.1.15,2014-01-04 01:58:00,
2014-01-03 20:59:00,23.0,8.4,30.47,SSE,158,0.0,0.0,53,0.00,,,0.00,Wunderground v.1.15,2014-01-04 01:59:00,
2014-01-03 21:00:00,23.0,8.0,30.47,SSE,158,0.0,0.0,52,0.00,,,0.00,Wunderground v.1.15,2014-01-04 02:00:00,
2014-01-03 21:01:00,23.0,8.0,30.47,SSE,158,0.0,0.0,52,0.00,,,0.00,Wunderground v.1.15,2014-01-04 02:01:00,
2014-01-03 21:02:00,22.9,8.3,30.47,SSE,158,0.0,0.0,53,0.00,,,0.00,Wunderground v.1.15,2014-01-04 02:02:00,
2014-01-03 21:03:00,22.9,9.1,30.47,SSE,158,0.0,0.0,55,0.00,,,0.00,Wunderground v.1.15,2014-01-04 02:03:00,
2014-01-03 21:04:00,22.9,9.1,30.47,SSE,158,0.0,0.0,55,0.00,,,0.00,Wunderground v.1.15,2014-01-04 02:04:00,
2014-01-03 21:05:00,22.8,9.8,30.47,SSE,158,0.0,0.0,57,0.00,,,0.00,Wunderground v.1.15,2014-01-04 02:05:00,
2014-01-03 21:06:00,22.8,9.4,30.47,SSE,158,0.0,0.0,56,0.00,,,0.00,Wunderground v.1.15,2014-01-04 02:06:00,
2014-01-03 21:07:00,22.8,9.4,30.47,SSE,158,0.0,0.0,56,0.00,,,0.00,Wunderground v.1.15,2014-01-04 02:07:00,
2014-01-03 21:08:00,22.8,9.8,30.47,SSE,158,0.0,0.0,57,0.00,,,0.00,Wunderground v.1.15,2014-01-04 02:08:00,
2014-01-03 21:10:00,22.8,9.0,30.47,SSE,158,0.0,0.0,55,0.00,,,0.00,Wunderground v.1.15,2014-01-04 02:10:00,
2014-01-03 21:12:00,22.8,8.6,30.47,SSE,158,0.0,0.0,54,0.00,,,0.00,Wunderground v.1.15,2014-01-04 02:12:00,
2014-01-03 21:13:00,22.8,9.4,30.47,SSE,158,0.0,0.0,56,0.00,,,0.00,Wunderground v.1.15,2014-01-04 02:13:00,
2014-01-03 21:14:00,22.8,10.6,30.47,SSE,158,0.0,0.0,59,0.00,,,0.00,Wunderground v.1.15,2014-01-04 02:14:00,
2014-01-03 21:15:00,22.8,10.6,30.47,SSE,158,0.0,0.0,59,0.00,,,0.00,Wunderground v.1.15,2014-01-04 02:15:00,
2014-01-03 21:17:00,22.8,9.0,30.47,SSE,158,0.0,0.0,55,0.00,,,0.00,Wunderground v.1.15,2014-01-04 02:17:00,
2014-01-03 21:18:00,22.7,8.9,30.47,SSE,158,0.0,0.0,55,0.00,,,0.00,Wunderground v.1.15,2014-01-04 02:18:00,
2014-01-03 21:19:00,22.7,9.3,30.47,SSE,158,0.0,0.0,56,0.00,,,0.00,Wunderground v.1.15,2014-01-04 02:19:00,
2014-01-03 21:20:00,22.8,9.4,30.47,SSE,158,0.0,0.0,56,0.00,,,0.00,Wunderground v.1.15,2014-01-04 02:20:00,
2014-01-03 21:22:00,22.7,9.7,30.47,SSE,158,0.0,0.0,57,0.00,,,0.00,Wunderground v.1.15,2014-01-04 02:22:00,
2014-01-03 21:23:00,22.7,9.7,30.47,SSE,158,0.0,0.0,57,0.00,,,0.00,Wunderground v.1.15,2014-01-04 02:23:00,
2014-01-03 21:24:00,22.7,9.7,30.47,SSE,158,0.0,0.0,57,0.00,,,0.00,Wunderground v.1.15,2014-01-04 02:24:00,
2014-01-03 21:25:00,22.6,10.4,30.47,SSE,158,0.0,0.0,59,0.00,,,0.00,Wunderground v.1.15,2014-01-04 02:25:00,
2014-01-03 21:26:00,22.6,10.8,30.47,SSE,158,0.0,0.0,60,0.00,,,0.00,Wunderground v.1.15,2014-01-04 02:26:00,
2014-01-03 21:27:00,22.6,10.4,30.47,SSE,158,0.0,0.0,59,0.00,,,0.00,Wunderground v.1.15,2014-01-04 02:27:00,
2014-01-03 21:28:00,22.5,10.3,30.47,SSE,158,0.0,0.0,59,0.00,,,0.00,Wunderground v.1.15,2014-01-04 02:28:00,
2014-01-03 21:29:00,22.5,10.3,30.47,SSE,158,0.0,0.0,59,0.00,,,0.00,Wunderground v.1.15,2014-01-04 02:29:00,
2014-01-03 21:31:00,22.4,11.0,30.47,SSE,158,0.0,0.0,61,0.00,,,0.00,Wunderground v.1.15,2014-01-04 02:31:00,
2014-01-03 21:32:00,22.4,11.0,30.47,SSE,158,0.0,0.0,61,0.00,,,0.00,Wunderground v.1.15,2014-01-04 02:32:00,
2014-01-03 21:33:00,22.3,10.1,30.48,SSE,158,0.0,0.0,59,0.00,,,0.00,Wunderground v.1.15,2014-01-04 02:33:00,
2014-01-03 21:34:00,22.3,10.1,30.48,SSE,158,0.0,0.0,59,0.00,,,0.00,Wunderground v.1.15,2014-01-04 02:34:00,
2014-01-03 21:35:00,22.3,10.1,30.47,SSE,158,0.0,0.0,59,0.00,,,0.00,Wunderground v.1.15,2014-01-04 02:35:00,
2014-01-03 21:36:00,22.2,10.4,30.47,SSE,158,0.0,0.0,60,0.00,,,0.00,Wunderground v.1.15,2014-01-04 02:36:00,
2014-01-03 21:37:00,22.2,10.4,30.47,SSE,158,0.0,0.0,60,0.00,,,0.00,Wunderground v.1.15,2014-01-04 02:37:00,
2014-01-03 21:38:00,22.2,10.4,30.48,SSE,158,0.0,0.0,60,0.00,,,0.00,Wunderground v.1.15,2014-01-04 02:38:00,
2014-01-03 21:40:00,22.2,10.0,30.48,SSE,158,0.0,0.0,59,0.00,,,0.00,Wunderground v.1.15,2014-01-04 02:40:00,
2014-01-03 21:41:00,22.2,9.3,30.48,SSE,158,0.0,0.0,57,0.00,,,0.00,Wunderground v.1.15,2014-01-04 02:41:00,
2014-01-03 21:42:00,22.2,10.0,30.48,SSE,158,0.0,0.0,59,0.00,,,0.00,Wunderground v.1.15,2014-01-04 02:42:00,
2014-01-03 21:43:00,22.2,10.4,30.48,SSE,158,0.0,0.0,60,0.00,,,0.00,Wunderground v.1.15,2014-01-04 02:43:00,
2014-01-03 21:44:00,22.1,10.3,30.48,SSE,158,0.0,0.0,60,0.00,,,0.00,Wunderground v.1.15,2014-01-04 02:44:00,
2014-01-03 21:45:00,22.1,10.3,30.48,SSE,158,0.0,0.0,60,0.00,,,0.00,Wunderground v.1.15,2014-01-04 02:45:00,
2014-01-03 21:46:00,22.1,10.3,30.48,SSE,158,0.0,0.0,60,0.00,,,0.00,Wunderground v.1.15,2014-01-04 02:46:00,
2014-01-03 21:47:00,22.1,10.3,30.48,SSE,158,0.0,0.0,60,0.00,,,0.00,Wunderground v.1.15,2014-01-04 02:47:00,
2014-01-03 21:48:00,22.1,9.9,30.48,SSE,158,0.0,0.0,59,0.00,,,0.00,Wunderground v.1.15,2014-01-04 02:48:00,
2014-01-03 21:49:00,22.0,9.8,30.48,SSE,158,0.0,0.0,59,0.00,,,0.00,Wunderground v.1.15,2014-01-04 02:49:00,
2014-01-03 21:50:00,21.9,9.7,30.48,SSE,158,0.0,0.0,59,0.00,,,0.00,Wunderground v.1.15,2014-01-04 02:50:00,
2014-01-03 21:51:00,21.9,10.1,30.48,SSE,158,0.0,0.0,60,0.00,,,0.00,Wunderground v.1.15,2014-01-04 02:51:00,
2014-01-03 21:52:00,21.9,10.1,30.48,SSE,158,0.0,0.0,60,0.00,,,0.00,Wunderground v.1.15,2014-01-04 02:52:00,
2014-01-03 21:55:00,21.8,9.3,30.48,SSE,158,0.0,0.0,58,0.00,,,0.00,Wunderground v.1.15,2014-01-04 02:55:00,
2014-01-03 21:56:00,21.8,9.7,30.49,SSE,158,0.0,0.0,59,0.00,,,0.00,Wunderground v.1.15,2014-01-04 02:56:00,
2014-01-03 21:57:00,21.8,10.0,30.49,SSE,158,0.0,0.0,60,0.00,,,0.00,Wunderground v.1.15,2014-01-04 02:57:00,
2014-01-03 21:58:00,21.7,9.9,30.49,SSE,158,0.0,0.0,60,0.00,,,0.00,Wunderground v.1.15,2014-01-04 02:58:00,
2014-01-03 22:00:00,21.7,9.9,30.49,SSE,158,0.0,0.0,60,0.00,,,0.00,Wunderground v.1.15,2014-01-04 03:00:00,
2014-01-03 22:01:00,21.7,9.2,30.49,SSE,158,0.0,0.0,58,0.00,,,0.00,Wunderground v.1.15,2014-01-04 03:01:00,
2014-01-03 22:02:00,21.7,9.2,30.49,SSE,158,0.0,0.0,58,0.00,,,0.00,Wunderground v.1.15,2014-01-04 03:02:00,
2014-01-03 22:03:00,21.7,8.8,30.49,SSE,158,0.0,0.0,57,0.00,,,0.00,Wunderground v.1.15,2014-01-04 03:03:00,
2014-01-03 22:05:00,21.7,9.6,30.49,SSE,158,0.0,0.0,59,0.00,,,0.00,Wunderground v.1.15,2014-01-04 03:05:00,
2014-01-03 22:06:00,21.7,9.9,30.49,SSE,158,0.0,0.0,60,0.00,,,0.00,Wunderground v.1.15,2014-01-04 03:06:00,
2014-01-03 22:07:00,21.7,9.9,30.49,SSE,158,0.0,0.0,60,0.00,,,0.00,Wunderground v.1.15,2014-01-04 03:07:00,
2014-01-03 22:08:00,21.7,9.6,30.49,SSE,158,0.0,0.0,59,0.00,,,0.00,Wunderground v.1.15,2014-01-04 03:08:00,
2014-01-03 22:11:00,21.7,11.4,30.50,SSE,158,0.0,0.0,64,0.00,,,0.00,Wunderground v.1.15,2014-01-04 03:11:00,
2014-01-03 22:12:00,21.6,11.3,30.50,SSE,158,0.0,0.0,64,0.00,,,0.00,Wunderground v.1.15,2014-01-04 03:12:00,
2014-01-03 22:13:00,21.6,10.6,30.50,SSE,158,0.0,0.0,62,0.00,,,0.00,Wunderground v.1.15,2014-01-04 03:13:00,
2014-01-03 22:16:00,21.5,10.5,30.50,SSE,158,0.0,0.0,62,0.00,,,0.00,Wunderground v.1.15,2014-01-04 03:16:00,
2014-01-03 22:17:00,21.4,10.7,30.50,SSE,158,0.0,0.0,63,0.00,,,0.00,Wunderground v.1.15,2014-01-04 03:17:00,
2014-01-03 22:18:00,21.5,11.2,30.50,SSE,158,0.0,0.0,64,0.00,,,0.00,Wunderground v.1.15,2014-01-04 03:18:00,
2014-01-03 22:19:00,21.4,11.1,30.50,SSE,158,0.0,0.0,64,0.00,,,0.00,Wunderground v.1.15,2014-01-04 03:19:00,
2014-01-03 22:21:00,21.4,10.7,30.50,SSE,158,0.0,0.0,63,0.00,,,0.00,Wunderground v.1.15,2014-01-04 03:21:00,
2014-01-03 22:22:00,21.3,10.7,30.50,SSE,158,0.0,0.0,63,0.00,,,0.00,Wunderground v.1.15,2014-01-04 03:22:00,
2014-01-03 22:23:00,21.3,10.3,30.50,SSE,158,0.0,0.0,62,0.00,,,0.00,Wunderground v.1.15,2014-01-04 03:23:00,
2014-01-03 22:24:00,21.3,10.7,30.50,SSE,158,0.0,0.0,63,0.00,,,0.00,Wunderground v.1.15,2014-01-04 03:24:00,
2014-01-03 22:26:00,21.3,10.7,30.50,SSE,158,0.0,0.0,63,0.00,,,0.00,Wunderground v.1.15,2014-01-04 03:26:00,
2014-01-03 22:27:00,21.2,10.2,30.50,SSE,158,0.0,0.0,62,0.00,,,0.00,Wunderground v.1.15,2014-01-04 03:27:00,
2014-01-03 22:28:00,21.1,9.7,30.50,SSE,158,0.0,0.0,61,0.00,,,0.00,Wunderground v.1.15,2014-01-04 03:28:00,
2014-01-03 22:29:00,21.1,9.7,30.50,SSE,158,0.0,0.0,61,0.00,,,0.00,Wunderground v.1.15,2014-01-04 03:29:00,
2014-01-03 22:32:00,21.0,10.4,30.50,SSE,158,0.0,0.0,63,0.00,,,0.00,Wunderground v.1.15,2014-01-04 03:32:00,
2014-01-03 22:34:00,20.9,10.6,30.50,SSE,158,0.0,0.0,64,0.00,,,0.00,Wunderground v.1.15,2014-01-04 03:34:00,
2014-01-03 22:37:00,20.7,10.4,30.50,SSE,158,0.0,0.0,64,0.00,,,0.00,Wunderground v.1.15,2014-01-04 03:37:00,
2014-01-03 22:38:00,20.7,10.8,30.51,SSE,158,0.0,0.0,65,0.00,,,0.00,Wunderground v.1.15,2014-01-04 03:38:00,
2014-01-03 22:39:00,20.7,11.1,30.51,SSE,158,0.0,0.0,66,0.00,,,0.00,Wunderground v.1.15,2014-01-04 03:39:00,
2014-01-03 22:40:00,20.7,10.8,30.51,SSE,158,0.0,0.0,65,0.00,,,0.00,Wunderground v.1.15,2014-01-04 03:40:00,
2014-01-03 22:42:00,20.7,11.1,30.51,SSE,158,0.0,0.0,66,0.00,,,0.00,Wunderground v.1.15,2014-01-04 03:42:00,
2014-01-03 22:43:00,20.7,11.1,30.50,SSE,158,0.0,0.0,66,0.00,,,0.00,Wunderground v.1.15,2014-01-04 03:43:00,
2014-01-03 22:44:00,20.7,11.1,30.50,SSE,158,0.0,0.0,66,0.00,,,0.00,Wunderground v.1.15,2014-01-04 03:44:00,
2014-01-03 22:45:00,20.7,10.8,30.51,SSE,158,0.0,0.0,65,0.00,,,0.00,Wunderground v.1.15,2014-01-04 03:45:00,
2014-01-03 22:47:00,20.7,11.1,30.51,SSE,158,0.0,0.0,66,0.00,,,0.00,Wunderground v.1.15,2014-01-04 03:47:00,
2014-01-03 22:48:00,20.6,11.0,30.51,SSE,158,0.0,0.0,66,0.00,,,0.00,Wunderground v.1.15,2014-01-04 03:48:00,
2014-01-03 22:49:00,20.6,10.7,30.51,SSE,158,0.0,0.0,65,0.00,,,0.00,Wunderground v.1.15,2014-01-04 03:49:00,
2014-01-03 22:50:00,20.5,10.6,30.51,SSE,158,0.0,0.0,65,0.00,,,0.00,Wunderground v.1.15,2014-01-04 03:50:00,
2014-01-03 22:53:00,20.4,10.5,30.50,SSE,158,0.0,0.0,65,0.00,,,0.00,Wunderground v.1.15,2014-01-04 03:53:00,
2014-01-03 22:54:00,20.3,10.4,30.51,SSE,158,0.0,0.0,65,0.00,,,0.00,Wunderground v.1.15,2014-01-04 03:54:00,
2014-01-03 22:55:00,20.3,10.4,30.51,SSE,158,0.0,0.0,65,0.00,,,0.00,Wunderground v.1.15,2014-01-04 03:55:00,
2014-01-03 22:58:00,20.2,10.6,30.50,SSE,158,0.0,0.0,66,0.00,,,0.00,Wunderground v.1.15,2014-01-04 03:58:00,
2014-01-03 22:59:00,20.2,10.6,30.50,SSE,158,0.0,0.0,66,0.00,,,0.00,Wunderground v.1.15,2014-01-04 03:59:00,
2014-01-03 23:00:00,20.1,10.6,30.50,SSE,158,0.0,0.0,66,0.00,,,0.00,Wunderground v.1.15,2014-01-04 04:00:00,
2014-01-03 23:03:00,20.1,10.9,30.50,SSE,158,0.0,0.0,67,0.00,,,0.00,Wunderground v.1.15,2014-01-04 04:03:00,
2014-01-03 23:04:00,20.1,10.9,30.51,SSE,158,0.0,0.0,67,0.00,,,0.00,Wunderground v.1.15,2014-01-04 04:04:00,
2014-01-03 23:05:00,20.0,10.8,30.51,SSE,158,0.0,0.0,67,0.00,,,0.00,Wunderground v.1.15,2014-01-04 04:05:00,
2014-01-03 23:06:00,20.0,10.8,30.51,SSE,158,0.0,0.0,67,0.00,,,0.00,Wunderground v.1.15,2014-01-04 04:06:00,
2014-01-03 23:08:00,20.0,10.5,30.51,SSE,158,0.0,0.0,66,0.00,,,0.00,Wunderground v.1.15,2014-01-04 04:08:00,
2014-01-03 23:09:00,19.9,10.4,30.51,SSE,158,0.0,0.0,66,0.00,,,0.00,Wunderground v.1.15,2014-01-04 04:09:00,
2014-01-03 23:10:00,19.9,10.0,30.51,SSE,158,0.0,0.0,65,0.00,,,0.00,Wunderground v.1.15,2014-01-04 04:10:00,
2014-01-03 23:11:00,19.9,10.0,30.51,SSE,158,0.0,0.0,65,0.00,,,0.00,Wunderground v.1.15,2014-01-04 04:11:00,
2014-01-03 23:12:00,19.8,9.9,30.51,SSE,158,0.0,0.0,65,0.00,,,0.00,Wunderground v.1.15,2014-01-04 04:12:00,
2014-01-03 23:14:00,19.8,10.3,30.51,SSE,158,0.0,0.0,66,0.00,,,0.00,Wunderground v.1.15,2014-01-04 04:14:00,
2014-01-03 23:15:00,19.7,10.2,30.51,SSE,158,0.0,0.0,66,0.00,,,0.00,Wunderground v.1.15,2014-01-04 04:15:00,
2014-01-03 23:16:00,19.7,9.8,30.51,SSE,158,0.0,0.0,65,0.00,,,0.00,Wunderground v.1.15,2014-01-04 04:16:00,
2014-01-03 23:17:00,19.6,9.7,30.51,SSE,158,0.0,0.0,65,0.00,,,0.00,Wunderground v.1.15,2014-01-04 04:17:00,
2014-01-03 23:19:00,19.5,9.6,30.51,SSE,158,0.0,0.0,65,0.00,,,0.00,Wunderground v.1.15,2014-01-04 04:19:00,
2014-01-03 23:20:00,19.5,10.0,30.51,SSE,158,0.0,0.0,66,0.00,,,0.00,Wunderground v.1.15,2014-01-04 04:20:00,
2014-01-03 23:21:00,19.6,10.1,30.51,SSE,158,0.0,0.0,66,0.00,,,0.00,Wunderground v.1.15,2014-01-04 04:21:00,
2014-01-03 23:22:00,19.5,10.3,30.51,SSE,158,0.0,0.0,67,0.00,,,0.00,Wunderground v.1.15,2014-01-04 04:22:00,
2014-01-03 23:24:00,19.5,10.3,30.51,SSE,158,0.0,0.0,67,0.00,,,0.00,Wunderground v.1.15,2014-01-04 04:24:00,
2014-01-03 23:25:00,19.5,10.0,30.51,SSE,158,0.0,0.0,66,0.00,,,0.00,Wunderground v.1.15,2014-01-04 04:25:00,
2014-01-03 23:26:00,19.5,10.0,30.51,SSE,158,0.0,0.0,66,0.00,,,0.00,Wunderground v.1.15,2014-01-04 04:26:00,
2014-01-03 23:28:00,19.5,10.0,30.51,SSE,158,0.0,0.0,66,0.00,,,0.00,Wunderground v.1.15,2014-01-04 04:28:00,
2014-01-03 23:29:00,19.5,10.3,30.51,SSE,158,0.0,0.0,67,0.00,,,0.00,Wunderground v.1.15,2014-01-04 04:29:00,
2014-01-03 23:31:00,19.5,10.3,30.51,SSE,158,0.0,0.0,67,0.00,,,0.00,Wunderground v.1.15,2014-01-04 04:31:00,
2014-01-03 23:34:00,19.6,10.7,30.51,SSE,158,0.0,0.0,68,0.00,,,0.00,Wunderground v.1.15,2014-01-04 04:34:00,
2014-01-03 23:35:00,19.6,11.1,30.51,SSE,158,0.0,0.0,69,0.00,,,0.00,Wunderground v.1.15,2014-01-04 04:35:00,
2014-01-03 23:36:00,19.5,11.0,30.51,SSE,158,0.0,0.0,69,0.00,,,0.00,Wunderground v.1.15,2014-01-04 04:36:00,
2014-01-03 23:39:00,19.6,11.7,30.51,SSE,158,0.0,0.0,71,0.00,,,0.00,Wunderground v.1.15,2014-01-04 04:39:00,
2014-01-03 23:40:00,19.6,11.1,30.51,SSE,158,0.0,0.0,69,0.00,,,0.00,Wunderground v.1.15,2014-01-04 04:40:00,
2014-01-03 23:41:00,19.6,10.7,30.51,SSE,158,0.0,0.0,68,0.00,,,0.00,Wunderground v.1.15,2014-01-04 04:41:00,
2014-01-03 23:42:00,19.7,10.5,30.51,SSE,158,0.0,0.0,67,0.00,,,0.00,Wunderground v.1.15,2014-01-04 04:42:00,
2014-01-03 23:44:00,19.8,10.3,30.51,SSE,158,0.0,0.0,66,0.00,,,0.00,Wunderground v.1.15,2014-01-04 04:44:00,
2014-01-03 23:45:00,19.8,9.9,30.51,SSE,158,0.0,0.0,65,0.00,,,0.00,Wunderground v.1.15,2014-01-04 04:45:00,
2014-01-03 23:46:00,19.9,9.7,30.51,SSE,158,0.0,0.0,64,0.00,,,0.00,Wunderground v.1.15,2014-01-04 04:46:00,
2014-01-03 23:47:00,19.9,10.4,30.51,SSE,158,0.0,0.0,66,0.00,,,0.00,Wunderground v.1.15,2014-01-04 04:47:00,
2014-01-03 23:48:00,19.9,10.4,30.51,SSE,158,0.0,0.0,66,0.00,,,0.00,Wunderground v.1.15,2014-01-04 04:48:00,
2014-01-03 23:49:00,19.9,10.4,30.51,SSE,158,0.0,0.0,66,0.00,,,0.00,Wunderground v.1.15,2014-01-04 04:49:00,
2014-01-03 23:50:00,19.9,10.0,30.51,SSE,158,0.0,0.0,65,0.00,,,0.00,Wunderground v.1.15,2014-01-04 04:50:00,
2014-01-03 23:51:00,19.9,10.0,30.51,SSE,158,0.0,0.0,65,0.00,,,0.00,Wunderground v.1.15,2014-01-04 04:51:00,
2014-01-03 23:53:00,19.9,10.7,30.51,SSE,158,0.0,0.0,67,0.00,,,0.00,Wunderground v.1.15,2014-01-04 04:53:00,
2014-01-03 23:54:00,19.8,10.6,30.51,SSE,158,0.0,0.0,67,0.00,,,0.00,Wunderground v.1.15,2014-01-04 04:54:00,
2014-01-03 23:55:00,19.8,10.6,30.51,SSE,158,0.0,0.0,67,0.00,,,0.00,Wunderground v.1.15,2014-01-04 04:55:00,
2014-01-03 23:56:00,19.8,10.6,30.51,SSE,158,0.0,0.0,67,0.00,,,0.00,Wunderground v.1.15,2014-01-04 04:56:00,
2014-01-03 23:59:00,19.9,10.7,30.51,SSE,158,0.0,0.0,67,0.00,,,0.00,Wunderground v.1.15,2014-01-04 04:59:00,